GFSCGP_500_rhum_003.txt.gz
RH
10 10 14 17 16 15 14 13 12 12 15 15 15 14 12 14 13 12 13 13 12 11 20 21 20 16 14 11 30 50 47 41 38 31 31 37 30 26 37 52 69 74 61 50
15 15 18 19 19 20 19 18 17 17 17 16 15 14 13 13 13 14 15 16 13 16 21 23 24 21 19 14 16 38 46 44 41 36 33 40 40 29 44 56 74 77 69 58
19 18 18 18 19 21 23 23 23 22 22 21 18 14 16 15 14 15 17 20 23 22 28 25 26 23 22 17 14 29 48 44 41 48 42 49 52 39 48 60 68 80 80 71
19 17 14 14 16 24 23 24 25 24 23 19 22 14 13 17 17 16 16 22 24 29 37 31 26 23 24 18 14 16 36 45 40 45 50 39 49 41 37 52 70 78 79 76
12 12 13 16 27 33 34 33 33 40 40 29 23 22 10 14 17 18 29 22 28 27 30 34 32 27 28 22 16 15 24 42 41 45 46 36 40 44 29 33 45 52 58 63
27 30 32 30 38 31 22 22 21 21 20 44 36 30 17 16 18 18 27 38 29 23 21 26 34 30 33 28 20 16 18 39 45 48 48 39 33 39 41 42 43 40 44 47
32 32 34 42 43 36 40 36 27 32 32 40 61 62 25 20 20 20 22 37 43 28 25 24 26 34 40 34 24 19 18 31 45 48 49 46 39 30 29 34 35 31 28 28
34 34 47 50 46 45 28 36 33 98 100 100 100 64 31 27 25 26 28 38 44 42 36 33 32 38 42 41 28 20 18 36 46 48 50 48 40 34 31 28 14 12 15 20
32 36 40 47 51 42 38 46 69 100 100 100 82 66 44 35 32 32 32 36 44 35 39 42 37 34 36 41 30 21 32 44 49 48 51 45 38 34 35 32 15 7 12 21
40 38 46 63 58 57 45 43 41 62 100 94 78 55 43 42 41 37 28 25 36 37 34 34 39 40 39 39 32 23 29 41 51 49 44 39 33 30 30 25 14 5 11 21
53 45 58 58 69 70 57 68 65 65 100 100 84 57 42 45 44 35 30 21 29 37 34 35 37 40 42 39 30 23 34 47 53 47 43 40 36 32 34 34 32 20 18 33
65 60 56 52 80 94 98 100 100 93 59 62 58 32 39 48 61 56 30 28 22 33 31 35 39 44 42 40 29 37 51 59 51 46 45 43 42 45 51 48 41 30 28 45
67 66 70 60 85 100 100 100 100 100 100 62 69 31 71 80 57 83 53 44 26 31 32 34 38 41 46 43 40 53 68 61 54 49 52 52 54 56 58 50 38 27 49 43
73 75 73 85 100 100 100 100 100 100 73 77 52 81 84 99 74 94 72 56 42 39 37 32 38 46 51 49 58 67 72 64 59 56 61 57 59 62 53 32 30 49 46 35
75 85 79 95 100 84 86 57 44 25 33 58 64 94 81 64 83 90 80 66 61 47 42 40 48 59 57 56 71 74 74 66 62 62 62 61 58 45 32 37 44 40 36 61
88 96 93 96 98 84 62 25 10 12 34 47 41 81 51 78 70 84 84 69 63 88 70 84 85 77 68 62 71 78 72 71 73 72 63 57 48 38 48 42 28 43 87 94
85 83 81 98 99 99 96 92 49 48 46 71 96 80 94 94 98 94 85 94 92 88 86 93 98 98 93 89 86 83 79 78 78 68 51 42 47 46 26 38 85 90 89 86
91 93 93 92 95 100 99 87 96 94 74 86 98 100 100 95 96 60 81 74 97 85 78 94 99 92 91 88 83 81 73 60 50 47 46 41 23 40 84 92 86 88 86 75
86 89 93 94 98 98 64 76 84 70 71 82 95 98 96 90 98 100 79 94 100 100 98 97 98 97 99 90 70 60 55 47 35 20 23 50 86 90 81 84 84 74 64 60
66 88 92 99 90 95 84 86 88 94 96 97 99 98 93 91 91 93 97 98 98 99 100 98 98 97 96 92 79 40 22 27 42 69 82 85 84 88 87 71 64 64 53 65
51 58 69 70 93 95 96 100 100 92 89 97 97 96 96 99 100 97 96 94 90 95 98 100 100 89 83 77 62 59 64 72 76 82 89 92 95 83 75 63 50 64 77 81
54 47 49 59 70 86 99 94 100 94 93 98 95 99 99 99 99 100 100 100 98 91 88 92 96 93 86 83 83 80 78 86 88 92 97 92 82 59 45 61 78 80 85 75
53 45 39 46 65 76 76 78 85 79 79 80 88 93 95 96 100 100 100 97 98 93 81 77 72 83 94 91 86 86 89 94 98 92 76 45 38 54 78 76 86 84 68 66
51 46 36 39 50 65 82 86 80 78 75 75 67 78 90 94 95 97 96 85 78 77 81 90 93 89 87 90 92 98 93 74 48 44 45 60 76 73 83 91 75 65 69 71
56 50 43 42 51 59 66 74 75 78 93 93 93 93 92 90 87 92 87 85 93 95 93 88 85 88 95 97 87 57 48 48 47 54 68 69 80 91 84 70 68 72 66 51
63 61 59 52 53 63 62 77 86 95 89 84 87 94 98 99 95 89 86 88 88 89 85 84 93 97 87 58 49 46 44 44 53 64 78 94 91 77 67 70 71 63 48 46

GFSCGP_500_rhum_006.txt.gz
RH
7 7 14 15 13 12 12 11 10 12 14 11 10 6 8 12 13 13 13 13 14 13 11 14 16 21 16 12 11 11 46 54 50 45 41 41 46 44 35 34 28 32 45 68
11 12 13 16 17 16 15 16 16 15 15 14 11 6 9 10 12 16 14 13 15 17 18 14 17 19 26 18 15 13 15 44 57 56 53 56 56 52 42 37 34 28 51 61
13 14 17 17 18 17 18 17 17 17 17 16 16 7 12 12 13 14 15 14 16 17 20 19 20 19 27 24 21 18 14 26 43 58 54 57 52 58 54 49 48 38 51 59
17 18 19 19 18 16 14 14 13 13 13 14 13 11 11 12 12 15 18 18 17 19 22 22 20 23 27 26 26 24 21 17 21 44 53 54 60 56 53 54 56 43 49 62
20 21 18 14 12 12 16 21 26 29 32 30 26 23 15 14 12 13 15 21 21 20 22 26 23 25 29 29 28 27 25 20 19 39 50 54 65 60 57 47 53 45 38 50
18 13 19 27 30 30 28 30 34 38 40 28 24 24 21 18 18 18 16 19 22 23 22 27 32 25 28 26 27 28 25 20 16 16 35 57 60 54 49 39 39 50 40 38
30 33 34 33 30 32 36 42 45 45 43 34 22 17 18 18 15 13 22 27 24 24 23 28 29 32 30 32 31 31 26 23 18 14 18 56 54 54 50 52 42 42 46 45
36 35 30 36 35 40 44 47 57 60 48 30 19 25 17 17 10 12 40 48 32 26 27 27 30 29 27 27 32 35 30 28 22 18 17 40 52 56 60 60 48 39 32 26
28 28 33 36 44 44 46 55 68 74 60 59 50 33 35 37 53 74 92 91 48 29 28 30 36 26 23 23 35 41 38 35 28 21 20 25 47 60 60 55 49 42 37 30
31 33 35 47 48 55 55 62 88 99 97 95 85 59 26 52 90 99 85 64 60 40 29 29 35 34 23 27 38 43 42 40 34 25 23 21 44 60 57 48 44 42 34 25
31 36 44 47 50 48 66 71 88 96 85 98 98 62 72 54 66 98 74 53 45 39 30 30 34 37 34 36 38 37 38 38 37 28 20 30 49 59 51 46 44 43 44 45
40 43 47 58 63 71 83 95 100 100 100 100 100 42 79 53 77 58 65 50 39 33 27 30 36 37 41 43 41 36 34 35 36 29 32 39 60 57 52 52 51 58 62 60
54 50 51 57 74 71 62 89 100 100 99 87 100 35 83 100 100 80 70 69 37 28 24 32 40 39 40 40 42 41 38 38 36 32 34 64 63 57 58 62 66 72 73 62
64 62 65 68 82 71 67 68 30 27 26 91 84 72 83 81 79 65 41 76 41 23 21 31 43 39 39 39 43 42 42 40 39 48 73 72 65 64 67 74 76 79 68 43
70 71 73 81 88 78 82 73 51 14 10 37 47 79 93 96 69 62 53 85 44 25 23 35 44 39 44 43 44 45 54 61 73 82 84 79 79 83 84 82 83 65 54 68
81 86 90 88 97 94 93 79 54 34 28 38 39 48 62 74 59 53 82 84 50 44 45 47 47 49 49 52 60 58 68 78 83 94 93 89 94 90 83 66 62 63 70 75
92 84 83 94 99 86 71 66 54 65 72 67 84 62 62 83 97 100 62 64 58 56 55 62 63 60 62 64 64 68 84 97 99 92 80 100 92 83 78 60 66 64 58 87
98 100 99 98 89 73 75 66 59 60 69 75 98 94 99 100 98 93 73 61 65 62 64 66 65 70 80 80 80 88 94 94 95 100 100 98 85 64 60 59 52 85 97 100
86 91 98 97 92 83 83 83 75 83 92 96 94 89 96 86 72 97 98 99 100 86 85 86 99 100 100 100 94 98 100 100 100 97 83 67 59 46 51 85 93 100 100 84
72 82 88 79 98 95 97 88 96 99 95 100 100 99 99 64 57 74 82 81 81 98 92 96 98 99 96 91 96 99 99 97 86 74 44 29 47 84 91 100 100 92 80 50
63 62 65 80 76 88 97 99 98 93 97 99 95 99 100 97 96 94 73 80 95 98 98 98 96 97 97 98 96 95 78 53 49 59 69 84 95 100 100 98 82 51 46 75
53 59 58 74 84 79 78 98 97 93 84 84 100 98 100 92 86 99 96 98 97 97 95 90 89 93 86 87 92 78 71 78 82 89 98 100 100 95 73 47 45 70 78 90
41 49 53 55 67 77 80 83 83 89 87 84 77 81 95 97 99 99 100 100 99 97 100 97 98 98 95 94 91 90 89 96 99 100 98 82 54 45 51 73 76 86 95 80
43 37 51 45 55 72 75 74 79 84 84 84 82 84 82 91 93 90 96 88 97 95 89 95 100 100 100 99 95 92 90 96 87 58 48 45 49 68 74 81 97 85 73 68
44 38 49 48 45 60 69 71 86 91 96 90 92 91 92 91 89 97 100 100 94 94 93 95 97 90 82 85 89 91 70 48 49 45 45 55 67 81 95 88 77 68 68 63
38 38 56 56 52 51 60 80 87 87 96 93 99 99 99 99 100 98 93 98 97 96 98 91 78 77 82 86 64 48 47 43 46 52 62 77 94 87 80 71 68 68 56 45

GFSCGP_500_rhum_009.txt.gz
RH
31 23 27 23 15 13 15 15 14 15 13 11 8 6 5 7 8 14 13 14 13 13 15 14 11 12 19 20 19 15 10 12 14 31 52 52 48 46 58 54 50 46 43 36
29 28 23 15 16 15 14 15 14 13 14 12 12 7 8 9 8 9 10 12 13 14 15 15 14 12 12 15 22 21 17 13 10 13 36 51 59 58 58 56 58 60 51 40
18 24 24 21 18 17 17 15 15 14 13 12 11 6 12 8 8 10 14 12 13 16 16 16 17 17 16 14 15 20 18 19 15 12 15 19 46 60 61 64 64 58 56 52
17 20 19 18 18 17 15 16 16 16 15 14 12 8 10 10 9 10 11 16 14 16 16 16 17 17 17 16 18 16 17 19 21 16 16 12 21 52 60 63 63 63 60 61
13 15 16 18 19 19 18 15 13 12 15 17 18 22 8 15 16 17 14 12 12 16 19 17 17 18 20 19 16 18 15 21 22 22 20 17 13 16 63 60 68 65 66 54
14 16 20 21 19 14 15 20 29 28 26 20 22 38 11 16 24 19 18 15 15 17 13 16 18 20 18 19 18 20 15 22 23 25 25 22 17 17 62 61 62 62 62 48
22 23 22 17 20 30 31 26 25 25 27 25 35 43 24 24 35 32 28 26 25 22 16 16 16 20 20 20 18 22 23 25 27 27 29 26 19 21 44 53 64 63 58 56
23 20 23 33 33 28 25 25 39 35 38 43 40 47 37 41 35 32 28 21 15 12 18 18 16 18 20 20 18 25 32 30 34 33 30 24 22 23 33 47 65 61 62 64
24 31 37 32 25 27 29 34 41 46 52 61 40 46 50 45 53 38 24 22 20 36 13 11 16 18 22 20 21 27 37 35 35 33 28 25 26 28 44 44 61 64 66 63
38 33 26 25 30 34 36 44 52 65 60 74 49 75 68 86 80 49 32 54 48 67 81 29 13 18 23 20 26 31 35 33 38 34 30 30 30 29 36 47 56 71 67 64
25 25 27 33 39 43 48 52 58 72 82 92 63 22 98 100 100 96 77 70 74 90 83 93 78 29 24 22 31 36 32 28 32 38 35 35 36 35 38 53 62 77 69 60
26 32 34 44 50 53 52 60 62 74 93 76 64 23 71 83 86 71 46 46 67 87 73 60 62 42 26 24 39 40 30 25 38 43 41 42 40 41 39 44 70 72 66 61
34 40 51 52 57 54 57 80 69 87 92 57 60 25 75 53 70 85 82 48 53 75 62 54 52 46 29 32 45 45 36 38 48 48 48 47 46 47 47 68 79 73 70 72
33 52 59 67 66 56 65 69 79 94 63 54 34 31 54 77 99 85 72 48 49 60 44 43 39 55 38 42 47 50 46 45 45 48 48 46 51 58 76 80 78 74 75 81
53 74 73 80 84 87 90 72 63 53 58 54 43 40 57 65 97 90 73 66 61 48 50 37 33 57 49 48 56 54 53 51 54 52 49 56 63 58 85 83 80 77 94 100
79 90 84 79 95 91 75 61 44 53 59 60 67 92 87 100 100 76 73 61 62 85 60 32 35 59 50 60 60 58 63 66 51 50 65 54 81 94 94 86 95 100 100 79
89 94 83 93 93 86 65 54 57 70 79 72 78 100 96 100 97 83 81 81 97 71 54 35 51 58 56 61 61 58 64 72 66 97 100 77 97 90 75 77 100 94 83 64
98 94 91 98 90 64 68 66 68 68 84 88 93 83 86 98 98 97 97 81 64 48 50 55 62 58 60 64 64 61 58 67 63 76 77 92 78 74 100 95 74 71 64 51
96 95 96 98 90 71 75 73 78 92 85 80 99 93 84 98 66 58 68 66 58 55 58 60 57 60 64 69 80 63 74 83 73 78 60 82 98 92 72 71 67 46 76 98
86 87 92 96 94 79 93 80 73 68 83 96 97 99 81 83 89 94 93 92 84 74 69 58 50 54 64 84 84 88 95 95 86 98 94 81 76 76 69 44 70 98 99 100
83 90 81 76 71 76 87 81 74 72 71 80 97 99 98 97 98 72 92 99 88 84 80 78 99 99 99 100 100 98 95 96 87 65 74 78 79 68 82 97 99 100 81 56
60 73 66 69 64 71 71 69 72 72 75 78 85 96 98 97 99 96 89 86 67 73 78 86 84 90 83 86 82 78 77 78 80 77 81 81 89 97 99 94 67 58 67 78
56 47 52 54 60 64 73 67 59 65 78 76 79 79 82 100 97 98 99 98 98 98 98 98 97 94 97 96 93 95 81 79 84 90 96 96 96 75 59 58 67 78 80 94
64 50 43 53 54 58 70 71 65 66 77 86 76 78 89 86 88 87 98 98 97 97 88 80 91 95 96 95 93 97 100 98 99 98 91 66 55 55 62 71 77 94 92 77
57 57 51 41 53 50 63 70 70 79 78 73 85 80 82 78 73 88 94 89 93 95 98 98 99 99 98 97 98 98 98 99 87 60 49 50 55 61 73 94 92 81 66 63
54 51 51 47 48 53 52 61 80 84 83 90 92 90 99 97 90 89 78 91 100 95 97 100 100 99 99 97 98 82 61 50 46 49 54 57 69 90 92 87 75 64 64 56

GFSCGP_500_rhum_012.txt.gz
RH
19 18 21 25 22 23 19 16 17 16 16 14 14 9 9 12 9 13 11 10 11 12 14 13 13 14 14 13 13 13 15 14 12 10 10 14 22 42 50 52 56 59 61 56
27 26 32 31 28 28 22 22 27 28 22 14 15 11 10 9 8 8 10 11 15 15 15 15 12 12 14 14 13 12 16 19 14 12 12 13 10 11 13 40 55 67 66 62
43 35 36 31 27 28 26 24 22 18 18 14 11 8 10 7 7 8 10 11 10 11 12 12 13 13 14 14 15 14 13 16 16 10 19 18 13 10 12 22 28 53 65 64
41 37 30 28 27 24 23 20 19 18 16 13 12 8 8 9 8 9 10 12 12 11 11 13 14 14 14 15 16 15 16 16 13 12 11 18 20 13 13 15 20 34 61 66
34 27 29 27 24 19 18 16 16 16 15 12 12 10 5 6 7 12 16 13 12 12 13 14 15 14 15 15 16 17 16 16 14 16 14 17 19 18 16 18 18 26 46 64
22 22 22 18 17 17 18 17 18 15 14 11 15 16 5 10 14 21 18 21 20 17 14 16 16 15 16 18 17 17 16 15 13 18 17 14 20 21 21 20 21 26 28 59
15 17 17 17 19 22 20 16 17 19 17 13 19 11 7 18 21 25 17 13 15 25 33 27 19 15 17 15 17 18 16 18 14 20 21 16 21 25 25 25 36 41 33 47
18 18 24 24 22 19 21 24 34 22 17 13 17 9 17 22 25 21 19 19 20 21 38 38 30 26 21 16 15 18 17 18 18 24 26 21 16 30 30 31 43 50 49 42
25 22 24 23 22 25 30 31 28 24 23 18 17 19 23 52 28 20 24 26 36 46 40 39 27 24 25 23 19 16 16 20 22 25 32 20 22 34 35 47 46 53 47 44
25 23 23 31 35 30 25 28 28 34 32 24 19 22 51 40 38 28 29 32 49 64 56 40 27 19 14 18 19 20 16 20 21 26 33 24 36 40 36 41 57 59 65 48
31 35 36 30 26 28 30 30 39 37 39 44 24 25 61 56 40 33 38 33 46 67 86 65 34 23 13 23 17 14 17 18 19 26 31 37 47 41 32 50 47 46 44 57
41 29 25 28 32 31 32 42 43 47 63 51 57 21 47 45 54 60 51 56 55 73 49 50 46 52 51 69 49 15 17 17 19 34 42 40 42 41 41 46 43 45 53 54
26 24 32 34 41 50 50 57 56 57 49 49 50 43 79 70 88 90 93 99 91 82 54 38 56 87 95 100 99 35 46 18 30 44 40 38 40 44 42 49 58 56 63 60
22 28 34 50 58 55 54 64 73 62 45 54 70 42 68 90 98 96 100 100 100 97 54 68 94 100 99 90 90 66 60 57 55 44 39 37 42 48 52 64 60 64 68 74
25 35 54 76 68 57 72 81 68 56 70 67 65 81 91 99 100 100 100 92 83 76 60 87 100 100 98 100 76 92 96 66 55 45 43 43 46 57 72 64 69 80 75 86
33 61 82 85 68 75 89 78 76 74 66 70 69 81 97 73 100 99 88 80 65 56 95 100 100 94 99 100 98 100 74 62 54 51 47 46 54 64 61 76 72 87 84 82
66 83 83 74 72 85 76 83 73 67 72 74 82 90 91 69 74 76 86 86 89 97 93 80 67 54 95 85 83 74 85 80 67 61 51 56 71 98 87 82 81 91 78 93
76 92 91 84 89 76 80 75 66 53 77 59 76 79 87 83 63 58 67 60 43 39 36 35 41 70 75 82 71 75 92 72 66 60 69 87 96 96 88 99 96 90 100 99
88 97 100 96 92 84 93 80 60 54 68 62 66 83 99 84 95 72 58 57 50 34 35 43 60 58 65 70 69 65 67 72 97 99 90 78 73 95 96 99 100 98 81 78
94 98 96 87 92 93 91 83 63 69 64 68 69 85 87 97 94 98 73 61 61 57 56 57 53 55 60 65 68 78 84 86 99 68 92 98 96 83 100 98 84 91 82 82
94 94 85 82 78 76 76 68 56 62 70 64 67 83 94 98 99 92 97 77 68 66 60 60 61 64 81 93 99 98 99 97 99 98 99 94 98 93 86 86 77 89 97 96
84 80 84 76 62 58 56 60 63 61 70 71 61 79 87 78 90 96 99 100 97 91 97 95 97 94 98 95 90 88 91 87 87 96 89 79 81 82 86 90 92 78 54 50
87 70 66 56 54 46 48 54 64 67 67 66 75 70 65 80 82 82 95 87 99 100 99 99 91 71 78 81 90 93 91 92 85 82 74 76 88 92 76 53 49 50 58 69
65 65 63 49 47 49 46 49 61 61 66 66 75 83 84 84 76 85 85 81 93 78 74 89 96 91 85 80 92 92 84 79 76 84 92 89 61 46 46 50 57 66 88 93
52 53 61 66 53 42 52 47 47 55 67 71 82 87 88 96 93 97 79 92 83 93 92 81 78 85 88 87 88 86 87 94 94 77 52 45 46 51 56 71 90 94 88 72
55 50 48 57 61 53 48 49 45 50 68 75 89 80 72 80 94 91 88 87 100 98 92 90 94 96 98 98 98 90 71 59 53 51 53 53 58 78 88 90 87 76 63 66

GFSCGP_500_rhum_015.txt.gz
RH
32 30 23 24 18 14 12 11 14 21 16 13 13 9 7 10 8 9 8 8 9 9 10 10 10 11 11 12 13 12 9 9 11 30 26 12 16 17 18 28 35 52 57 58
20 24 29 19 16 14 12 13 19 21 18 10 12 10 9 10 10 10 12 11 12 13 12 12 12 11 12 13 15 14 10 8 9 14 23 22 21 20 25 23 18 20 27 41
27 31 21 22 22 25 19 17 19 20 20 17 11 9 10 11 14 14 13 13 11 11 12 13 14 14 13 14 15 16 13 10 10 11 25 32 32 35 41 36 26 19 21 22
29 32 30 30 34 32 26 25 24 22 22 17 14 8 10 12 11 11 11 10 9 9 9 10 11 12 12 13 14 13 13 12 11 12 16 18 24 22 29 27 28 25 23 27
41 44 38 42 39 31 26 22 24 22 19 15 13 10 6 9 10 10 9 8 8 9 10 11 12 11 10 12 13 16 15 14 12 11 17 20 25 24 29 36 36 33 33 33
44 50 46 37 32 27 23 22 20 17 15 10 10 9 6 6 8 13 13 13 14 12 12 13 13 13 14 14 12 13 17 16 13 13 13 15 20 22 32 40 35 32 42 30
43 46 44 33 26 19 18 21 21 17 12 9 8 7 6 13 15 17 18 16 16 18 19 14 9 8 11 13 15 17 18 16 14 14 14 15 21 21 30 38 38 32 36 42
41 35 27 21 20 20 22 23 21 16 13 11 12 10 11 15 22 23 20 18 16 25 26 26 24 20 15 10 14 16 23 22 17 15 15 16 18 24 34 31 32 29 37 47
20 24 26 25 26 26 28 26 24 21 18 14 14 14 14 26 41 37 32 34 34 37 39 39 36 26 20 14 20 22 33 27 22 17 17 18 18 26 35 31 32 34 42 46
24 28 28 28 26 27 26 26 23 20 18 18 16 20 26 41 37 32 32 37 46 56 63 64 36 21 18 19 51 37 36 34 25 20 18 19 26 36 36 39 39 39 44 56
30 29 34 34 28 28 26 21 22 26 36 31 27 22 56 42 37 40 48 60 73 87 100 61 40 30 25 24 47 33 23 28 33 22 20 18 27 34 44 40 44 48 52 63
29 32 41 35 28 23 21 30 39 47 44 40 38 30 46 52 50 69 68 69 90 100 92 78 64 54 30 59 51 32 19 18 34 27 22 18 25 36 43 43 50 54 62 72
40 38 33 24 24 26 39 51 52 48 54 61 47 50 57 54 73 81 65 92 85 100 85 81 73 81 91 59 52 43 26 20 35 39 27 21 24 30 38 44 56 62 70 73
40 28 25 26 29 40 57 62 70 60 60 50 51 32 51 48 50 54 63 92 85 87 96 80 71 59 48 47 54 50 67 25 51 57 63 25 22 30 38 52 62 68 70 73
28 26 27 30 44 55 68 74 66 77 68 59 47 56 58 63 60 61 72 66 52 62 73 72 68 64 50 64 90 99 99 80 66 99 73 34 36 39 47 62 63 63 69 84
25 27 41 55 73 77 85 81 89 66 52 43 54 66 86 84 80 60 48 50 63 66 68 83 83 81 90 82 100 100 88 47 65 98 62 46 32 38 53 54 72 89 94 80
26 34 72 78 76 84 91 96 74 54 46 39 58 66 74 75 91 62 50 40 51 63 77 94 98 94 97 100 98 97 98 97 80 63 48 44 42 41 56 75 86 88 80 76
22 56 89 86 96 93 92 97 76 63 50 42 62 51 69 67 82 68 46 37 30 32 37 46 75 98 100 100 100 100 84 71 68 60 52 54 61 72 75 96 85 90 88 95
37 78 95 100 100 97 97 100 82 61 51 55 45 66 72 66 78 78 54 38 26 29 37 61 73 99 92 86 89 80 74 94 75 74 86 79 80 87 96 97 98 98 99 98
51 92 96 100 99 95 98 93 70 71 55 60 49 68 66 72 82 83 56 52 54 55 60 62 77 84 86 83 83 98 99 87 90 100 98 98 98 94 100 95 99 98 82 90
59 93 95 93 92 82 81 78 69 67 60 64 56 55 63 72 70 64 77 64 59 54 59 68 77 79 77 76 95 96 80 77 91 99 99 72 97 98 98 96 100 89 82 81
53 85 91 94 87 71 61 58 52 56 61 65 58 60 57 57 66 79 70 81 91 96 72 68 93 99 99 99 99 98 99 99 98 97 94 96 95 89 78 70 69 65 50 50
61 68 82 83 77 58 58 49 42 44 52 59 57 65 70 67 53 65 82 74 89 95 100 98 93 99 100 88 72 100 97 91 87 88 85 79 82 78 66 50 46 47 47 46
54 64 81 74 59 52 50 50 45 43 47 59 63 70 71 71 71 59 72 83 71 80 98 99 96 82 88 88 86 98 89 87 91 90 79 71 59 49 46 46 46 46 56 79
48 54 65 64 61 67 59 45 45 47 46 65 71 77 75 72 80 77 68 78 87 90 88 92 98 92 88 84 81 75 71 71 68 62 57 54 52 52 50 50 66 82 81 78
34 52 50 58 53 54 59 59 50 48 48 66 77 79 70 69 82 94 85 81 86 84 92 95 86 71 70 73 71 66 65 64 63 63 62 59 56 60 76 80 76 74 66 62

GFSCGP_500_rhum_018.txt.gz
RH
61 41 26 25 25 23 21 20 18 14 11 9 9 8 8 15 9 11 10 8 8 9 11 9 9 8 8 9 8 8 7 8 16 39 41 36 40 45 24 19 24 28 37 45
73 56 72 45 28 23 21 19 18 15 12 10 9 8 10 13 11 10 9 9 10 12 13 12 11 10 10 10 11 11 10 10 10 15 26 30 24 27 30 20 18 27 36 38
44 48 53 33 28 24 21 19 17 15 13 11 9 8 10 12 12 11 11 11 11 12 14 15 15 16 15 14 14 14 12 11 10 10 19 33 47 48 44 45 38 46 44 39
23 22 23 20 22 20 17 17 16 15 14 11 12 9 10 12 12 14 15 15 16 16 14 14 13 12 12 13 14 15 17 14 12 12 14 26 31 38 33 45 47 50 44 46
31 24 25 23 26 24 22 22 21 19 16 12 14 10 10 12 14 13 13 12 12 12 12 11 11 10 10 9 9 10 12 12 12 13 13 21 38 40 36 31 37 50 61 57
27 36 34 35 29 24 32 32 25 20 19 14 15 12 9 10 10 10 10 11 11 10 10 10 9 10 11 10 11 11 12 13 11 10 11 13 27 33 39 34 31 36 44 58
31 41 42 40 35 34 33 29 24 18 16 14 12 10 9 13 16 14 14 12 11 11 12 12 13 13 14 17 15 14 15 14 14 12 10 10 12 14 20 26 26 40 51 50
49 48 50 44 33 26 24 21 19 16 16 15 13 9 14 17 16 16 15 15 16 16 15 16 17 18 20 21 22 19 17 10 12 14 14 15 10 11 15 24 29 38 50 59
58 50 36 30 25 21 24 22 22 22 18 14 14 13 17 33 26 22 21 20 19 18 20 25 31 34 33 37 36 35 34 29 20 10 11 14 16 12 14 20 25 38 63 67
41 37 26 23 26 28 26 24 23 22 17 14 13 19 47 34 28 23 25 29 33 39 49 52 51 53 62 68 63 59 45 35 28 22 16 12 13 19 17 30 41 56 57 67
24 25 27 29 28 26 23 28 24 22 24 24 26 42 30 35 30 25 28 35 38 38 36 30 42 63 82 80 73 41 26 20 19 16 15 11 11 26 22 31 45 51 62 61
29 30 29 28 32 32 24 24 27 28 38 46 41 45 42 33 39 44 44 37 30 24 23 32 74 100 96 76 73 49 37 28 25 26 32 19 32 32 28 36 49 52 60 64
32 31 33 38 32 24 26 28 36 46 57 57 44 41 34 36 46 45 37 36 24 28 37 56 42 84 99 94 56 43 35 31 26 27 51 41 36 52 41 47 47 43 58 51
35 39 36 27 23 24 38 46 56 65 55 55 50 43 53 54 42 38 54 26 27 37 45 48 39 62 65 67 48 40 34 34 40 46 61 42 47 75 60 58 56 64 48 59
46 40 29 23 23 39 62 72 76 66 48 31 40 50 46 51 50 48 46 25 33 43 58 70 64 54 39 40 44 45 49 49 60 65 68 47 57 73 58 46 51 37 49 52
38 30 25 24 31 60 73 81 72 55 36 33 34 53 58 52 53 52 29 25 35 45 64 87 92 81 67 59 51 100 100 89 47 67 70 39 82 69 100 55 31 38 49 59
31 27 23 31 57 73 73 83 72 60 37 43 44 63 65 58 53 45 37 24 28 34 56 83 89 72 54 76 99 100 96 89 82 53 54 66 83 98 52 41 41 48 62 72
38 23 32 59 73 80 90 88 79 72 53 46 48 69 59 55 49 48 38 33 30 43 67 73 66 71 83 97 100 100 99 76 67 98 94 97 93 61 51 58 61 60 74 76
38 23 45 71 88 95 94 94 88 72 66 49 49 47 52 64 54 50 46 48 50 54 61 94 85 81 88 97 95 99 99 99 100 98 93 94 79 65 58 54 59 90 97 99
26 33 67 83 91 97 94 96 90 74 64 49 53 44 43 48 69 64 69 75 51 51 58 78 85 77 84 93 98 99 95 85 73 73 69 68 63 64 69 85 98 79 90 98
18 36 77 93 98 93 91 79 72 68 61 49 54 53 51 42 56 69 71 74 71 66 57 94 95 93 90 92 97 96 91 88 93 97 98 97 92 98 98 99 97 98 96 93
40 51 86 97 99 88 83 68 61 56 57 47 54 57 56 55 44 60 60 79 72 88 90 92 90 95 97 98 94 97 87 90 86 96 97 95 96 97 96 91 85 81 80 64
48 56 62 92 90 90 77 58 52 50 45 46 51 56 61 62 60 53 62 67 74 80 90 99 100 98 94 84 83 85 83 88 86 74 79 75 72 76 69 57 50 48 49 50
40 41 67 86 77 89 58 50 51 51 44 46 53 63 69 65 69 68 61 75 84 87 90 90 87 100 99 92 87 80 75 74 76 80 71 64 56 53 51 51 52 50 49 48
40 32 49 75 80 74 64 60 53 46 45 46 58 71 73 69 68 83 73 66 78 89 93 97 88 83 85 81 74 72 70 67 63 62 59 56 57 58 54 48 46 46 48 51
39 31 27 50 60 62 60 59 62 59 51 48 60 77 76 76 75 84 78 78 84 92 87 94 87 83 76 75 73 72 73 68 64 63 62 60 55 53 54 55 54 54 54 54

GFSCGP_500_rhum_021.txt.gz
RH
64 57 29 35 30 26 18 15 13 14 13 11 10 8 10 11 9 9 8 7 8 11 13 9 8 8 8 8 8 8 7 7 8 17 19 35 54 68 64 48 43 37 26 22
90 74 48 36 29 25 19 17 16 18 18 14 13 10 10 10 9 9 8 8 10 10 11 10 9 8 8 9 9 10 9 7 7 9 11 9 14 33 57 62 60 51 21 20
93 87 86 100 49 23 20 19 21 22 21 19 19 17 14 11 9 9 9 8 9 11 11 10 10 10 10 10 12 12 11 9 7 8 12 14 14 13 25 40 62 51 50 39
97 100 85 67 47 34 28 28 25 23 21 20 19 15 16 14 12 11 11 10 11 11 11 14 15 14 14 13 14 14 15 14 10 10 9 28 26 18 20 41 50 64 74 69
100 98 88 100 74 37 30 27 24 21 19 19 17 15 14 16 15 14 14 12 12 12 12 14 15 15 15 14 14 14 13 13 13 13 13 14 22 23 26 24 34 53 64 68
64 47 27 24 22 20 21 21 20 18 16 16 16 14 14 15 14 14 14 13 12 12 12 12 12 12 12 12 11 11 11 11 12 11 10 10 11 20 29 40 42 56 58 62
54 34 26 24 21 24 24 24 21 20 18 16 16 13 14 16 11 10 11 11 12 11 11 11 11 11 11 11 11 11 11 12 12 11 10 9 9 8 10 16 46 46 60 61
32 45 30 26 28 33 30 27 27 21 19 16 13 12 15 17 13 10 10 10 10 9 9 10 11 13 16 18 20 19 18 19 17 17 16 15 12 9 8 17 20 38 50 43
30 34 36 42 50 45 38 31 26 18 15 13 14 17 19 15 12 11 13 18 23 24 23 22 26 27 26 27 31 34 36 32 29 27 23 20 17 14 14 12 10 24 42 42
35 55 57 56 46 37 27 23 21 20 16 15 13 20 28 18 16 21 29 28 23 21 25 30 31 32 33 36 39 43 47 50 39 33 28 23 19 15 13 12 14 16 32 41
56 58 49 42 29 22 24 25 23 24 20 16 16 40 28 25 30 33 27 22 24 27 28 20 17 20 23 26 25 24 27 42 62 67 55 39 34 28 22 14 11 18 33 33
47 37 27 24 27 26 30 30 25 22 20 28 40 52 48 39 33 26 27 30 30 26 26 22 22 23 30 36 35 29 41 71 81 68 62 62 59 44 35 27 18 13 54 38
30 28 28 29 29 34 28 24 25 27 37 62 60 52 33 32 40 32 30 33 33 28 24 18 21 37 42 49 33 31 62 90 86 75 77 62 48 32 23 24 19 48 80 49
31 31 30 34 33 28 25 25 36 50 60 76 46 37 50 49 44 45 40 38 24 23 26 32 52 43 64 69 37 40 69 87 79 65 49 39 31 25 23 20 23 64 69 63
34 38 40 32 24 25 26 43 60 69 59 39 40 34 34 35 37 39 38 36 21 27 31 48 38 20 26 37 31 31 35 36 34 32 36 41 32 24 24 24 20 49 62 86
44 44 37 30 25 27 45 66 72 73 45 37 40 38 51 45 39 35 45 29 26 31 35 25 22 24 22 36 48 68 78 94 78 59 49 33 44 45 52 50 52 65 82 89
46 40 32 27 26 34 70 74 78 69 51 36 38 43 63 51 49 42 45 38 36 49 42 35 48 52 62 90 100 100 99 86 94 80 48 48 97 100 96 93 85 85 67 99
42 36 32 27 28 58 76 80 83 71 53 44 49 45 36 39 45 43 45 60 42 47 56 58 54 67 88 98 100 93 52 34 32 46 60 67 57 77 96 92 74 74 88 83
38 36 34 23 55 78 82 88 87 81 58 50 48 43 42 36 36 40 53 53 59 43 60 82 77 66 79 96 98 52 62 85 90 95 98 98 91 89 93 94 99 94 66 72
41 41 34 30 65 87 93 92 91 88 68 59 46 46 48 40 34 41 48 59 62 58 69 76 93 70 76 97 99 99 92 87 96 99 100 100 99 88 100 70 70 69 63 98
42 54 29 43 79 91 94 97 95 78 67 53 49 43 42 44 44 41 50 61 61 68 76 84 73 82 88 95 99 90 98 99 88 100 99 89 77 76 87 91 91 100 100 99
47 38 24 53 85 88 92 96 82 66 50 48 44 41 42 48 51 48 52 67 58 63 73 76 80 84 90 80 84 96 98 100 97 98 98 100 99 100 99 99 99 98 98 98
39 45 56 60 96 97 92 92 73 57 45 40 43 40 46 55 55 55 76 62 77 64 78 76 85 87 77 89 84 72 70 72 77 80 79 82 89 90 70 62 58 51 51 51
40 44 56 57 73 94 98 90 62 57 49 43 43 40 52 60 59 61 88 76 82 82 74 78 78 84 82 77 76 72 72 67 64 62 62 61 59 59 60 58 55 51 48 49
37 35 32 45 66 77 82 81 55 50 45 46 47 44 54 62 65 65 78 85 78 94 88 76 76 78 77 76 78 77 73 74 71 66 64 62 59 54 52 50 48 48 45 45
38 37 38 40 51 50 85 79 70 65 65 61 55 49 59 66 70 73 78 84 86 88 100 96 86 86 84 83 79 77 72 67 64 62 61 62 62 60 57 54 51 50 50 46

GFSCGP_500_rhum_027.txt.gz
RH
96 74 61 40 31 27 24 20 19 18 18 16 15 13 12 17 16 17 16 16 15 15 14 13 11 9 9 9 8 6 7 9 9 10 10 11 12 15 19 18 20 32 35 51
98 84 75 46 36 33 29 24 20 18 16 16 15 13 17 18 16 15 14 14 14 14 14 13 11 10 9 8 8 7 6 7 8 8 10 10 10 11 14 23 21 25 38 45
100 99 93 57 38 30 28 26 25 22 18 15 14 14 16 17 16 14 12 13 13 12 12 10 10 9 9 8 8 7 6 6 8 8 8 8 10 10 13 18 22 19 32 40
100 100 100 75 47 36 29 29 27 24 20 18 15 13 15 14 13 12 11 10 10 9 10 10 9 8 8 8 8 7 7 7 8 9 8 8 8 10 13 15 16 16 21 22
100 96 88 95 73 52 42 36 30 24 21 18 16 15 17 15 13 12 12 15 17 17 17 16 15 13 11 10 9 8 8 8 8 8 8 9 8 8 11 14 15 16 21 32
99 100 100 100 88 80 58 44 35 28 20 16 15 15 18 16 15 16 18 18 17 16 15 15 14 13 12 11 11 10 10 9 9 8 9 10 11 12 12 14 15 17 18 20
99 100 100 99 98 100 96 67 44 34 22 19 20 19 20 20 19 19 19 18 18 17 15 14 13 12 11 10 9 8 8 8 8 8 8 8 8 9 10 12 15 16 19 25
99 95 100 98 97 99 89 65 56 37 30 26 25 22 22 21 20 19 18 17 16 15 13 12 11 10 8 8 9 10 14 18 19 20 21 20 16 12 10 11 12 13 15 24
98 92 97 100 90 79 74 57 38 30 29 26 26 24 23 21 19 17 14 13 12 11 9 8 9 10 13 19 23 20 18 18 20 24 26 24 23 30 31 22 16 16 17 17
92 97 88 74 48 34 30 33 35 30 29 29 26 21 18 17 15 13 11 11 10 10 11 14 18 19 18 17 15 16 17 17 19 20 21 23 21 23 33 48 47 34 25 24
83 73 68 72 50 37 33 35 33 35 31 26 22 20 17 14 12 11 11 13 16 23 24 22 18 16 15 15 17 15 12 11 16 21 29 27 18 27 33 50 76 71 56 40
74 63 46 47 49 41 40 40 39 32 26 24 21 18 14 13 17 18 24 26 24 23 22 19 16 17 18 15 8 9 12 21 24 30 27 45 40 22 47 60 68 84 93 77
35 39 36 49 56 50 49 37 29 26 30 26 21 18 19 29 34 29 23 21 21 19 18 18 18 18 17 9 9 13 15 20 31 36 45 83 94 78 44 56 56 83 99 99
52 62 61 52 41 34 30 29 32 31 28 28 35 37 44 29 21 18 25 25 23 25 22 23 22 26 25 19 12 18 22 24 30 46 31 52 100 100 48 32 52 100 100 100
58 41 37 35 34 36 37 34 28 28 34 62 57 51 34 29 27 40 36 25 24 22 23 31 34 31 22 16 20 25 36 34 36 35 24 30 100 100 92 58 89 100 100 100
34 37 36 40 42 37 29 26 31 47 66 68 57 38 43 30 49 36 30 24 23 24 30 35 30 27 22 26 28 42 48 37 42 34 36 30 51 66 68 41 82 97 92 95
35 35 41 42 36 29 27 27 50 64 78 69 48 48 38 36 31 27 26 23 22 24 38 37 38 39 29 32 38 36 43 39 46 45 45 52 36 44 47 32 53 76 71 66
37 41 45 39 33 30 31 34 47 69 81 72 62 53 38 36 39 36 32 32 28 22 36 48 45 43 41 38 40 52 44 49 58 49 50 58 66 63 44 41 69 48 43 52
34 42 44 40 37 32 31 36 54 70 81 81 74 52 35 39 42 39 36 36 36 31 46 43 45 50 53 45 40 56 49 56 54 58 60 73 80 89 90 92 100 75 42 33
45 45 42 41 38 35 33 36 60 76 83 86 78 55 42 38 41 36 40 43 44 44 43 44 46 57 63 43 40 62 46 61 69 68 72 81 81 89 90 100 99 100 99 99
53 49 44 42 38 42 38 38 65 83 82 88 80 57 46 40 43 36 47 44 46 47 44 54 51 62 62 53 46 47 50 51 68 70 73 82 87 94 95 92 100 99 100 100
59 58 49 42 37 42 39 38 70 92 94 89 80 54 38 40 41 37 48 47 45 46 44 65 58 66 64 60 55 56 56 56 56 57 59 63 71 79 98 99 100 100 100 100
45 42 49 50 42 37 40 40 75 94 95 95 77 50 42 40 40 38 48 54 50 49 51 53 72 64 61 68 66 64 65 65 62 62 60 60 61 61 61 60 62 62 59 56
33 36 38 43 48 42 44 40 50 94 100 94 68 49 43 43 45 40 47 60 60 54 59 59 74 79 70 65 73 76 76 68 61 60 61 61 61 60 60 60 59 57 54 53
31 32 38 44 45 49 48 48 66 99 97 86 67 55 47 45 51 52 44 53 66 65 69 69 76 88 85 81 85 90 81 73 67 66 68 65 63 62 61 59 56 54 54 56
32 35 42 51 52 52 52 59 60 74 92 85 78 57 47 44 59 59 52 51 68 74 78 82 76 87 93 92 90 95 86 78 71 70 67 65 65 65 64 60 56 56 56 54

GFSCGP_500_rhum_030.txt.gz
RH
88 91 75 73 45 36 38 27 28 31 40 59 39 40 19 16 18 20 16 16 15 15 13 12 11 12 11 10 9 10 9 10 10 8 7 10 10 12 14 11 12 14 19 38
99 70 70 82 50 37 30 25 24 24 26 43 55 50 23 19 18 18 18 17 16 15 14 13 13 11 10 10 10 9 9 9 9 8 7 6 9 10 10 15 10 18 14 27
93 77 81 86 56 42 35 28 23 21 20 20 23 22 20 20 17 14 15 17 18 16 15 13 12 11 10 10 9 9 9 9 9 8 8 6 6 9 10 10 10 12 13 17
100 100 98 95 67 46 38 33 28 23 20 18 18 17 17 16 16 14 13 14 14 14 13 12 11 10 9 9 8 7 8 7 8 8 7 7 7 6 9 10 10 11 12 14
99 99 97 91 84 50 40 34 33 28 24 22 19 20 18 16 14 14 14 14 13 12 11 10 9 9 9 12 14 15 14 13 12 11 10 8 8 8 9 10 12 14 17 17
100 92 91 98 91 58 41 36 34 32 28 24 21 20 19 16 14 13 12 12 11 10 10 10 13 15 15 15 14 14 12 12 11 10 10 9 9 9 9 10 11 14 17 20
100 100 100 100 99 71 50 42 38 33 30 24 23 20 18 16 14 12 12 11 11 12 14 16 17 18 16 15 14 12 11 10 9 8 8 7 7 8 8 9 10 12 11 14
100 98 100 100 100 90 78 62 51 40 34 26 23 20 16 15 13 11 10 12 14 17 19 19 18 16 14 12 10 8 8 7 8 10 12 14 16 17 18 18 19 20 22 18
99 100 100 100 99 100 100 100 92 66 55 40 30 22 21 18 16 14 16 18 19 18 16 14 12 10 9 8 8 9 10 12 14 13 12 12 13 14 15 18 21 25 26 28
98 98 98 100 99 99 100 99 91 79 54 35 30 27 24 23 21 21 21 20 17 14 12 10 9 9 10 11 14 14 14 13 12 12 12 10 10 12 13 15 20 24 22 22
88 98 93 96 99 83 71 54 52 45 34 36 32 28 26 24 23 20 17 14 12 10 10 10 12 16 18 15 13 12 13 15 9 10 10 13 22 26 31 36 43 32 40 33
91 94 99 91 80 62 52 37 34 37 43 38 32 27 24 21 18 15 13 12 11 13 15 20 18 17 15 14 16 17 14 8 9 11 15 21 20 22 27 34 33 75 38 43
77 74 93 67 75 72 45 36 36 44 42 30 27 26 20 17 15 15 18 16 22 23 20 20 22 21 20 18 18 19 15 9 15 22 31 21 22 24 27 30 67 100 95 100
44 53 60 46 56 60 53 49 46 38 29 32 26 20 20 28 26 29 27 22 23 23 24 22 22 23 22 21 22 18 15 23 26 36 25 20 23 26 29 40 80 100 100 100
65 46 46 59 60 59 54 38 32 34 30 26 23 22 44 46 34 26 21 26 24 23 22 22 22 24 19 18 22 24 22 26 27 24 27 28 22 22 33 44 98 99 96 72
67 68 58 47 38 35 36 37 36 30 27 28 26 43 58 38 28 28 32 32 28 23 18 19 19 25 24 24 24 26 29 23 26 29 32 30 32 28 38 55 36 43 50 87
53 37 38 39 40 43 38 31 27 26 28 40 65 67 47 41 35 32 32 24 22 20 17 18 24 32 27 24 31 29 29 30 28 33 31 38 36 36 45 68 75 47 47 86
37 40 46 49 43 35 30 28 29 36 48 64 78 55 47 42 34 31 27 26 27 29 26 24 28 33 31 40 40 37 30 33 30 36 40 43 42 49 40 65 78 50 38 58
39 44 48 47 39 34 32 31 36 45 64 78 84 68 60 43 34 33 32 32 34 34 30 28 33 33 33 39 41 35 40 33 34 39 46 48 48 50 58 62 80 76 56 37
36 39 45 47 42 38 33 30 29 42 63 77 88 80 71 54 36 30 32 35 43 42 33 27 31 40 43 51 43 36 34 31 39 45 49 48 52 60 60 72 74 73 82 94
44 39 39 40 39 38 35 34 32 33 61 85 86 89 80 64 40 29 33 38 45 44 37 35 32 44 52 55 47 41 41 39 41 38 38 41 45 60 67 70 69 74 84 89
62 55 51 46 43 42 38 36 35 35 56 87 94 93 87 67 39 32 34 44 44 46 43 39 39 47 52 54 52 54 53 51 43 42 43 46 48 50 52 53 56 61 76 89
46 48 52 56 54 48 42 38 37 39 51 83 90 92 87 58 38 36 38 43 41 51 49 45 48 47 60 59 60 62 62 56 51 51 50 50 52 55 55 55 54 55 54 53
44 39 40 42 42 45 48 42 36 38 40 77 93 96 88 61 42 40 42 40 39 44 57 51 58 53 62 71 68 69 70 63 62 59 55 50 51 52 53 54 55 54 54 53
38 36 32 33 34 36 41 43 37 39 38 49 85 92 84 58 50 47 50 53 46 43 58 60 61 66 66 77 81 74 79 74 68 66 60 58 59 59 57 55 54 52 53 54
32 31 27 29 29 36 40 40 46 48 40 62 83 86 90 64 57 48 49 60 57 50 55 70 69 74 75 77 82 89 85 84 75 74 71 68 66 64 62 58 55 54 55 54

GFSCGP_500_rhum_036.txt.gz
RH
100 95 62 25 31 63 58 67 92 52 71 89 92 97 88 55 46 49 44 37 30 25 24 22 19 19 20 21 20 16 12 10 12 11 10 10 11 10 9 10 19 19 25 20
94 81 60 62 59 76 83 81 96 74 56 73 82 90 95 70 46 50 47 38 33 30 27 19 18 19 19 18 19 17 13 11 12 12 12 10 10 10 10 9 8 11 16 18
85 81 67 53 68 70 75 84 79 83 64 74 96 80 88 78 52 50 42 37 35 31 27 20 20 18 14 13 13 14 13 12 12 12 10 10 10 9 8 9 8 8 8 12
89 71 58 53 64 65 64 86 55 63 64 69 93 68 68 94 63 59 51 38 29 24 21 19 16 14 12 11 11 11 11 11 11 11 10 9 8 8 8 9 11 10 10 10
48 65 55 75 79 77 74 72 70 49 48 77 81 79 51 69 80 68 59 48 34 21 16 17 18 22 25 24 20 14 13 12 10 9 8 8 11 14 14 14 13 13 12 12
76 52 79 88 100 100 99 83 73 49 44 72 46 85 54 47 45 77 70 58 45 39 39 33 34 30 24 18 14 10 9 9 9 8 10 14 15 15 14 13 12 10 9 8
100 100 97 100 100 90 92 88 90 53 41 62 44 58 70 45 37 32 52 71 58 53 50 39 31 25 14 11 10 10 9 9 9 13 16 18 17 14 11 8 8 9 10 11
99 99 98 92 100 99 100 100 100 72 46 42 46 37 75 52 28 21 20 19 17 16 14 13 12 12 10 10 10 9 10 12 15 19 18 14 10 8 9 10 11 11 10 10
97 100 99 100 100 98 98 90 85 80 55 44 38 33 30 51 58 45 27 20 17 15 13 12 12 11 10 9 9 11 15 19 20 16 10 9 9 10 10 8 8 9 9 10
96 99 100 99 100 100 98 100 94 81 57 46 42 36 30 27 29 30 28 21 16 13 12 12 11 10 9 10 15 20 20 17 13 11 11 9 8 6 7 11 9 11 12 15
96 100 99 100 96 99 89 96 97 90 71 54 48 41 32 30 28 25 21 18 15 13 12 12 11 12 15 20 21 18 14 12 11 10 9 7 7 10 9 8 9 14 20 21
100 95 94 95 95 95 99 99 99 97 84 76 65 56 46 41 36 31 25 21 17 15 14 15 17 20 21 17 13 11 11 11 10 7 7 10 9 8 10 11 15 19 25 24
76 89 96 90 96 96 94 100 100 100 100 100 100 82 70 57 47 38 29 24 21 21 21 21 22 18 12 11 11 13 11 9 9 13 11 10 8 12 15 15 18 17 19 22
59 71 94 87 88 93 98 100 96 78 80 85 80 66 43 47 36 35 30 27 26 24 21 16 12 12 16 17 15 13 14 14 16 16 17 14 12 18 18 20 22 19 23 22
76 72 69 78 86 92 83 85 82 69 84 70 60 48 50 44 38 31 29 25 22 18 16 19 22 21 19 17 16 15 16 16 18 19 16 15 19 25 24 24 24 26 28 27
49 66 75 66 75 84 86 72 63 70 77 46 49 52 43 36 33 30 29 24 29 35 33 30 28 22 19 16 15 14 14 15 23 22 17 24 29 23 23 26 31 27 32 31
60 71 66 52 53 63 64 54 54 57 54 49 50 47 34 33 33 37 54 51 40 37 38 34 27 22 15 14 14 13 15 25 27 28 31 32 27 23 23 26 29 33 37 36
46 81 84 76 61 55 54 54 55 57 40 39 37 35 34 35 44 53 56 43 39 43 37 30 23 18 16 15 14 15 21 29 29 36 31 27 24 22 20 21 22 29 30 35
65 90 51 72 77 58 52 47 44 45 41 35 34 31 46 62 82 62 50 48 45 38 35 30 23 21 18 18 17 17 25 37 40 38 34 30 26 25 26 26 25 24 27 32
41 51 44 44 44 49 51 45 35 32 32 34 43 68 76 87 68 66 54 47 40 35 32 30 29 25 23 21 19 23 32 42 49 44 41 38 32 31 29 28 26 26 27 29
37 35 40 40 46 48 47 39 35 34 36 42 60 76 88 96 78 83 68 54 43 35 30 29 32 28 26 23 25 29 33 38 43 45 46 41 37 36 31 28 31 32 33 33
56 42 40 36 34 43 47 44 41 39 38 35 41 66 87 100 97 90 86 73 52 36 30 29 34 31 28 28 32 34 34 37 45 48 52 49 44 41 34 34 35 36 35 33
64 62 56 49 39 42 40 40 44 40 39 38 37 45 75 95 98 100 92 84 62 39 31 34 37 32 32 35 37 42 42 42 45 60 59 57 52 48 41 40 40 38 33 32
58 58 58 57 55 54 53 49 48 45 44 40 38 36 37 65 93 100 98 91 67 42 37 38 36 33 37 40 42 44 45 50 49 62 64 66 61 57 52 47 44 42 39 37
31 48 52 53 49 44 44 45 46 46 45 45 46 42 37 39 68 89 98 98 78 46 42 39 36 36 43 47 47 47 50 56 57 56 65 66 68 68 60 54 51 47 47 46
36 23 29 45 48 48 46 41 38 36 34 37 44 48 42 38 41 66 97 98 86 54 48 51 51 48 42 41 46 50 55 61 64 67 64 70 76 79 72 63 57 52 50 48

GFSCGP_500_rhum_039.txt.gz
RH
83 74 42 21 11 25 49 63 55 58 66 91 92 94 97 87 80 58 46 41 39 38 33 27 24 21 20 18 18 18 15 13 15 15 12 10 9 12 21 19 12 19 24 25
83 58 45 41 24 26 41 59 58 62 74 93 89 89 96 83 74 62 51 42 38 34 33 29 24 21 23 23 22 21 20 17 15 15 13 10 9 10 11 10 9 8 10 13
86 57 43 71 70 51 24 45 57 56 60 74 69 71 88 89 81 68 64 49 40 37 31 28 25 23 24 23 21 20 19 18 15 13 12 10 9 9 9 10 10 10 8 6
100 100 73 83 73 56 28 46 65 60 62 74 76 59 74 92 93 83 67 58 48 39 33 29 25 26 25 22 20 19 15 12 11 11 10 10 9 10 9 8 8 9 13 15
52 60 78 53 61 50 45 59 63 81 84 80 86 65 61 80 84 78 70 59 48 42 36 32 29 26 23 20 18 14 13 17 18 14 13 12 10 9 8 8 9 14 16 15
49 69 85 57 62 49 46 58 62 65 96 81 78 76 57 73 74 76 77 58 57 48 40 33 28 19 17 18 20 24 27 25 20 12 10 9 8 8 9 12 15 17 16 14
85 90 78 78 73 68 45 70 75 73 66 66 62 59 50 60 68 69 76 69 63 66 46 33 31 29 35 39 36 33 31 27 18 10 9 8 8 9 14 18 18 14 10 8
64 72 88 58 46 53 76 94 84 88 62 61 68 54 51 53 66 72 46 53 72 78 65 64 62 59 54 49 45 37 30 17 10 9 9 8 10 16 20 15 10 9 9 8
56 49 45 44 42 62 76 73 86 94 89 82 63 56 54 50 52 68 40 24 31 50 60 59 48 29 22 16 13 12 11 9 9 9 9 13 19 20 12 8 10 9 6 7
90 81 80 77 80 81 80 100 100 99 94 86 69 56 44 48 41 60 70 37 25 21 20 19 17 16 14 12 11 11 10 9 9 11 18 20 17 10 10 9 7 8 8 8
92 98 98 99 95 93 99 93 100 100 100 93 82 64 52 45 38 31 37 72 53 42 31 23 18 13 12 12 11 11 10 11 16 22 18 11 10 10 8 7 8 8 9 11
100 98 100 91 100 99 93 100 94 98 98 99 83 68 58 48 42 38 33 29 26 25 21 18 14 13 13 12 11 12 15 21 21 13 10 11 9 8 10 10 8 12 15 13
100 94 97 99 100 97 88 99 94 92 99 95 91 68 68 60 52 47 40 32 27 23 20 17 15 15 15 14 16 20 21 16 10 13 11 10 12 11 11 8 8 17 15 16
75 86 94 100 94 96 95 97 100 99 99 97 90 84 90 98 84 75 59 50 42 36 27 21 19 19 21 21 20 16 12 14 14 14 13 14 15 15 14 13 15 18 19 18
59 71 77 90 90 88 86 90 82 84 100 85 94 90 86 71 56 54 48 40 40 32 27 25 24 20 16 13 13 15 15 15 14 14 13 15 18 18 17 18 24 21 18 18
72 78 70 74 91 95 93 77 71 76 84 79 91 76 65 68 52 52 42 34 32 29 25 20 17 17 20 20 18 16 12 12 12 13 13 13 22 22 23 28 25 20 17 16
72 69 58 68 74 69 81 100 90 78 68 72 74 73 51 86 46 41 36 32 30 36 33 30 28 28 31 25 20 14 14 12 11 13 18 25 24 27 28 26 21 17 16 17
34 40 60 72 70 60 59 64 71 62 58 58 59 55 51 92 45 38 38 51 64 52 41 41 42 36 28 22 19 15 12 11 12 15 22 32 35 33 30 26 24 23 23 24
36 41 60 77 87 65 59 58 56 56 61 52 43 44 38 40 63 52 65 71 59 48 48 48 40 34 28 23 17 13 14 15 16 18 33 43 42 39 36 32 30 28 25 23
35 60 69 50 52 73 87 67 50 47 50 58 48 41 34 39 52 75 92 70 59 55 52 47 44 38 28 21 17 20 20 20 22 27 36 36 41 44 39 37 33 28 26 26
36 37 42 47 45 51 86 70 64 39 39 37 42 49 63 79 87 93 76 70 62 53 50 45 40 35 28 26 26 28 26 26 29 33 41 41 42 47 46 43 37 35 31 28
60 46 41 36 39 49 58 57 58 46 42 44 40 50 68 83 95 97 84 88 77 62 48 42 38 34 29 30 30 34 33 33 35 38 43 51 53 53 54 51 46 41 39 33
73 66 65 54 43 43 43 49 53 50 44 39 39 38 47 72 91 100 99 89 86 84 63 42 41 39 34 33 34 36 39 38 40 45 46 54 60 60 63 61 58 50 44 39
59 64 63 61 60 59 50 52 44 41 40 42 40 40 39 41 55 86 95 99 98 86 76 49 44 48 44 38 36 40 43 44 47 51 51 55 64 64 63 68 66 60 53 46
26 33 50 55 56 55 54 53 52 52 50 49 48 47 43 39 37 38 56 87 99 98 85 60 45 50 49 40 41 45 45 41 48 56 59 61 67 67 70 71 77 70 63 56
82 60 36 28 42 50 52 47 42 41 41 39 39 42 46 49 47 40 39 41 72 98 99 81 52 48 49 48 42 42 41 50 54 60 68 68 70 79 81 77 82 86 78 71

GFSCGP_500_rhum_045.txt.gz
RH
100 82 56 25 18 32 41 45 57 55 93 96 98 94 98 98 96 96 94 86 93 97 81 76 71 60 53 42 35 31 28 24 21 18 16 14 14 14 14 14 14 13 14 22
98 74 76 32 21 30 36 44 51 51 65 96 98 91 98 95 93 96 81 72 82 100 78 67 66 65 60 47 35 30 26 24 22 20 17 15 13 14 13 13 13 14 14 14
97 84 75 44 23 20 29 42 54 68 74 88 92 91 88 92 97 97 88 86 84 76 81 64 53 52 54 51 39 30 26 25 23 21 19 18 18 17 17 16 15 14 13 12
100 97 78 45 33 20 21 35 51 56 71 70 92 77 89 96 94 94 97 88 74 66 64 67 53 44 43 43 41 36 30 26 23 21 20 19 17 17 17 17 17 15 12 11
98 97 94 62 43 26 18 20 34 48 47 49 50 69 80 94 88 90 72 81 76 69 66 60 56 51 45 42 41 39 38 36 30 25 21 19 17 16 16 16 14 11 14 16
97 99 94 83 63 40 20 17 19 28 32 31 40 39 38 78 77 86 89 88 81 72 67 66 61 50 43 40 40 40 37 33 29 28 27 23 22 19 17 14 19 26 23 17
99 94 77 70 61 41 24 16 17 20 18 16 20 29 17 50 70 74 74 84 82 73 66 69 73 63 52 43 38 35 33 31 28 26 24 23 20 20 20 26 29 26 24 16
96 80 70 59 49 40 37 35 34 35 37 37 31 24 14 30 52 64 71 65 70 74 73 75 75 68 56 47 42 37 34 32 30 26 26 21 22 29 37 40 36 34 23 12
95 89 75 87 63 68 53 49 56 47 31 28 23 17 15 21 52 63 70 61 58 67 76 81 78 80 69 57 50 46 39 32 25 19 23 33 48 43 39 35 27 22 13 9
87 97 79 55 63 61 55 56 49 45 42 36 26 24 18 21 27 52 67 67 66 68 81 80 81 80 79 64 48 42 37 32 29 28 31 41 39 39 32 25 14 10 10 12
87 84 74 76 60 58 58 52 58 54 41 30 26 28 36 44 47 43 59 61 57 62 75 68 69 76 77 77 58 50 46 42 42 44 44 44 41 31 15 11 10 11 16 18
55 49 56 60 58 77 81 73 69 48 31 36 26 22 42 56 64 68 64 75 76 78 56 66 34 38 36 53 74 68 64 62 58 53 49 33 15 11 10 10 13 18 16 14
81 69 66 70 59 50 48 57 57 48 42 34 43 29 53 79 84 91 87 90 86 89 60 75 81 51 41 30 27 33 32 24 21 19 16 13 11 10 12 19 18 15 11 9
95 93 100 100 96 92 85 96 96 87 47 55 54 74 92 92 95 95 90 92 95 92 87 76 94 86 70 55 41 37 34 28 20 16 13 12 14 18 19 15 13 11 11 14
86 86 92 96 83 83 85 94 73 55 74 74 84 63 100 95 96 96 88 87 85 89 80 72 75 80 82 62 43 33 26 20 18 15 16 18 18 16 14 14 11 12 12 12
87 100 100 100 87 79 71 72 78 75 83 76 76 80 100 99 95 93 96 92 94 97 95 88 78 66 58 69 63 39 27 22 20 19 18 16 14 12 12 12 12 11 14 21
64 65 79 89 91 86 76 99 90 85 70 88 73 98 74 75 96 99 98 95 96 83 90 96 77 79 69 49 39 35 26 26 24 20 17 13 11 11 11 11 13 19 26 29
78 77 72 69 64 57 58 59 59 56 74 72 75 80 87 83 89 94 88 84 78 64 58 50 45 58 59 70 52 38 39 33 26 21 16 13 11 13 14 14 15 15 18 27
69 51 42 40 42 48 59 65 65 61 55 53 62 77 82 73 66 79 91 100 72 57 48 45 64 73 64 61 62 56 42 34 28 22 18 16 16 16 17 18 17 21 25 29
50 40 35 36 40 52 69 80 73 62 58 54 57 65 67 59 59 70 99 95 76 58 52 82 86 74 66 67 63 50 46 40 32 26 21 20 21 22 22 21 20 20 24 39
66 43 35 40 66 69 57 69 82 77 63 57 56 57 60 45 49 56 60 64 90 92 99 99 95 82 73 68 62 57 54 43 32 27 25 28 29 28 28 27 25 23 31 48
81 66 48 39 48 53 55 58 68 88 75 62 51 50 58 50 50 49 43 45 57 82 96 99 97 98 95 74 67 60 54 46 36 31 30 33 36 35 36 37 37 33 37 49
68 83 84 72 57 52 54 55 66 83 91 71 60 48 46 50 49 54 76 88 91 94 98 95 96 87 73 65 61 61 56 50 44 39 39 41 42 42 43 43 42 43 47 51
30 33 42 76 82 74 68 60 52 58 73 72 76 59 54 47 47 64 89 97 91 100 94 99 100 99 88 64 54 55 58 58 50 45 42 43 48 49 50 46 48 51 53 55
98 81 50 29 34 70 77 67 58 50 53 57 75 79 62 47 44 43 53 74 89 100 100 100 100 99 99 99 66 51 55 58 61 55 49 47 50 49 52 51 54 61 62 57
82 86 82 83 72 36 35 60 63 62 59 52 50 48 51 50 43 41 40 40 41 43 55 73 87 92 96 100 98 66 59 64 65 60 61 61 58 51 54 58 61 70 73 66

GFSCGP_500_rhum_048.txt.gz
RH
100 100 71 58 21 24 28 46 42 70 100 93 97 97 94 95 96 96 92 97 83 91 88 85 92 90 63 58 55 51 48 46 43 39 33 27 21 18 16 14 13 12 13 12
100 97 100 82 39 22 31 40 48 61 68 97 97 95 100 89 98 97 97 86 91 95 84 77 81 85 91 70 56 51 46 42 39 36 30 24 20 19 17 16 16 16 15 15
96 95 100 95 52 24 31 42 52 57 61 72 89 96 86 99 99 97 96 96 97 87 89 86 77 78 77 81 83 69 57 46 40 35 30 26 22 20 18 17 16 16 15 15
100 100 88 98 50 34 37 49 53 56 60 60 71 64 94 98 99 93 85 93 88 85 83 88 88 83 78 74 77 77 66 57 45 37 32 30 26 23 20 20 19 18 17 17
97 96 83 94 51 24 26 45 50 51 53 50 50 51 62 84 93 85 98 94 97 97 100 100 100 98 90 74 65 59 57 57 54 42 33 28 26 24 23 22 20 19 18 18
100 93 99 93 57 29 24 32 42 50 49 51 55 47 45 74 74 87 97 96 97 92 92 94 85 80 83 70 56 48 45 44 43 40 38 36 34 29 26 24 22 21 20 18
100 99 100 87 57 37 23 19 25 36 34 27 32 31 26 30 39 62 88 94 95 93 80 84 80 75 69 63 61 58 53 47 43 43 42 40 36 32 31 31 26 22 17 18
99 99 98 81 63 42 32 19 14 14 18 16 18 13 14 21 43 63 73 88 89 95 86 82 75 68 68 67 63 59 53 47 43 40 39 37 34 30 28 26 31 21 26 38
82 92 82 74 71 54 40 24 15 13 12 14 22 22 26 26 22 39 57 66 91 96 97 98 84 80 72 70 68 68 64 57 51 42 37 34 33 31 28 24 27 42 38 36
94 94 74 58 54 46 40 39 29 26 33 32 24 18 17 23 19 19 41 57 64 80 84 79 90 86 81 79 74 71 66 59 52 46 44 41 35 28 22 28 32 34 33 33
73 88 67 62 59 58 59 51 45 58 51 30 26 25 24 20 20 20 18 27 54 68 79 71 61 67 74 76 78 78 74 68 63 55 50 41 36 32 28 32 36 38 38 20
83 100 97 94 93 78 60 58 64 54 44 43 41 20 22 24 32 40 36 24 28 42 67 79 70 65 78 80 77 74 78 75 72 55 47 41 39 40 41 40 45 37 14 11
96 95 95 78 71 58 62 67 70 68 70 45 46 20 24 46 64 63 54 53 49 60 68 88 72 61 74 69 49 53 62 71 76 67 56 53 53 53 52 35 17 12 11 14
69 69 61 59 60 66 60 72 68 66 57 50 32 33 42 100 77 60 74 72 69 72 63 65 82 83 64 76 68 44 34 30 39 55 64 59 43 26 20 17 12 13 16 16
63 58 65 66 66 75 76 58 51 35 49 52 66 56 100 99 91 78 74 91 91 81 76 79 76 92 79 72 70 61 61 52 38 34 32 31 28 21 14 14 16 17 16 16
100 100 98 99 100 100 89 85 91 96 100 78 90 60 100 89 88 84 82 92 96 88 83 82 84 88 78 73 82 84 66 64 53 40 31 25 19 16 18 18 17 16 16 14
69 81 95 100 100 98 92 100 100 95 86 96 69 95 79 90 78 85 79 82 98 98 90 89 95 95 86 74 80 87 81 79 71 73 48 23 20 20 19 17 14 13 14 14
72 74 66 69 67 65 64 67 75 79 85 85 78 92 82 84 86 86 91 95 86 89 94 97 100 100 100 90 81 87 76 70 65 73 51 36 25 20 16 14 16 15 17 15
84 86 88 75 71 61 58 60 59 59 64 50 47 58 67 72 64 69 87 94 100 94 92 98 73 66 71 73 63 84 88 53 53 43 35 30 24 21 21 20 18 17 21 20
82 80 60 45 37 34 38 44 55 70 73 62 58 58 54 54 60 80 77 84 100 90 94 73 66 53 52 83 88 96 88 94 95 76 43 35 32 26 25 23 23 24 23 22
77 59 66 51 34 42 67 68 60 69 75 68 65 61 60 60 61 62 54 60 59 77 92 81 67 59 95 95 86 84 87 72 68 73 51 43 36 28 27 29 28 30 31 30
86 77 73 54 41 45 60 65 57 60 68 83 73 58 55 60 58 51 49 46 57 74 81 97 83 100 98 94 96 96 82 73 71 62 52 49 38 32 32 33 36 37 38 40
52 71 83 81 75 63 51 52 57 58 68 85 85 73 67 58 55 51 57 63 55 51 50 64 88 100 100 98 99 94 93 94 83 66 56 49 45 42 37 40 42 44 44 49
29 30 33 49 70 80 80 68 53 51 56 64 88 94 82 76 57 67 78 85 98 100 100 100 100 99 97 97 97 95 93 95 94 71 58 54 51 47 45 47 48 54 53 58
41 31 27 27 28 31 43 62 72 68 57 53 56 78 90 91 64 50 50 67 92 100 100 100 100 100 98 100 100 100 87 71 73 68 62 58 55 51 48 50 52 55 56 59
55 78 92 92 88 85 84 62 29 40 68 63 55 53 57 88 89 67 51 47 51 62 76 93 100 99 98 99 96 100 100 98 72 66 67 66 63 62 58 61 63 58 60 66

GFSCGP_500_rhum_051.txt.gz
RH
99 86 66 77 49 36 30 23 52 64 81 96 96 94 97 91 85 100 74 67 77 94 94 94 91 84 87 90 86 88 81 72 71 70 68 57 50 45 40 35 34 25 20 16
100 74 96 89 45 33 29 32 32 51 69 78 91 95 95 82 85 95 92 81 71 82 91 93 94 96 98 96 86 88 84 74 68 66 58 51 46 41 37 32 28 23 19 18
99 87 100 99 58 28 25 35 40 48 63 89 96 95 79 80 92 91 95 83 69 72 84 92 98 100 98 98 97 95 84 73 62 56 51 47 43 39 34 29 25 22 20 18
100 100 100 100 90 60 26 27 40 45 50 53 77 66 70 86 95 74 92 86 85 100 99 96 91 100 99 98 96 97 97 97 92 65 50 46 41 36 32 28 24 25 29 22
94 98 98 93 98 92 61 25 35 40 42 45 50 49 62 96 92 74 92 100 99 98 97 100 99 98 95 95 96 96 95 93 94 95 87 71 56 44 37 36 37 32 29 25
98 99 100 100 93 94 57 29 31 39 46 43 46 43 40 73 66 86 95 88 96 97 93 95 98 85 94 100 100 97 93 86 82 78 80 82 73 66 60 44 32 29 29 27
100 98 94 99 96 94 46 31 28 31 36 33 42 34 30 46 46 49 67 95 97 96 96 98 96 94 100 100 98 96 91 86 79 68 60 55 53 50 45 40 37 36 33 30
96 98 96 93 94 71 44 21 20 20 20 25 34 40 40 41 38 52 76 80 80 92 94 89 96 98 96 93 85 77 72 74 73 65 55 48 45 43 42 43 44 41 35 30
88 91 78 80 86 67 35 23 20 18 15 17 21 25 32 37 42 52 63 81 76 70 77 88 96 93 96 95 88 78 69 65 64 61 58 54 49 45 42 39 36 34 32 27
86 81 78 83 81 62 46 38 29 22 13 11 13 15 21 24 25 27 35 54 61 69 68 79 91 96 98 83 76 74 69 64 63 62 62 61 58 53 48 42 38 34 28 30
83 83 79 88 81 72 59 47 40 33 19 12 13 20 36 32 29 28 27 26 31 50 58 61 73 88 97 93 73 64 61 61 61 60 58 57 58 55 51 48 47 39 35 29
88 93 84 65 61 60 55 47 41 38 30 27 27 30 30 28 29 34 28 24 22 20 23 38 52 62 90 90 81 81 77 74 72 70 62 60 56 55 54 53 50 43 38 41
73 73 80 66 64 58 56 70 63 56 49 41 38 26 25 41 50 46 29 25 21 17 20 26 32 48 60 75 82 68 64 69 71 70 65 66 67 62 61 56 50 47 46 50
64 71 77 87 76 79 68 72 70 61 45 47 29 36 44 59 50 34 24 21 34 32 34 47 51 48 54 66 72 79 70 74 66 66 68 68 64 66 64 65 59 58 53 28
69 83 84 87 80 72 65 60 53 41 46 47 42 42 44 67 40 29 28 42 51 44 41 43 64 66 66 66 76 74 69 68 70 51 37 34 33 43 51 55 48 32 23 17
54 52 52 54 56 56 63 89 87 78 73 51 56 39 98 83 75 65 70 75 70 65 65 67 78 82 71 67 79 87 81 73 73 73 51 48 42 35 35 33 29 22 18 19
98 98 99 99 91 90 99 98 88 90 96 91 70 95 81 82 74 75 61 68 82 82 87 88 88 90 91 92 83 81 93 77 76 81 82 71 66 50 36 26 22 20 20 23
63 68 74 82 80 84 90 91 88 88 95 88 91 96 77 81 81 75 89 85 84 92 95 93 91 94 96 100 96 90 86 74 72 87 86 85 81 71 74 63 47 26 22 19
83 80 75 72 80 74 66 62 60 64 63 59 60 60 55 52 59 83 81 82 85 82 85 98 100 100 100 100 100 99 100 98 91 85 91 85 85 92 87 82 63 46 25 29
83 83 82 81 82 60 56 42 38 42 49 53 57 57 58 55 46 59 54 65 75 75 79 86 100 99 100 99 76 72 83 95 82 89 87 72 65 54 48 43 36 36 38 30
98 95 81 66 60 67 42 39 54 62 58 61 73 74 67 61 57 60 58 54 69 68 64 68 92 100 92 80 71 84 99 97 99 98 99 97 88 73 71 63 52 41 34 30
92 94 85 75 65 55 41 40 66 68 61 60 68 84 79 61 58 60 63 65 65 58 58 75 80 89 98 92 77 94 100 99 100 100 100 99 99 99 97 83 55 44 38 36
42 48 81 90 89 82 74 57 51 54 58 60 69 95 93 81 57 51 57 58 51 48 50 63 70 81 95 92 100 100 99 100 100 100 100 100 99 90 75 66 60 51 47 44
39 34 32 38 48 66 78 81 83 74 51 52 61 63 87 96 92 85 73 58 54 51 59 73 91 77 73 82 100 100 99 100 100 100 100 100 98 87 97 81 58 55 54 53
49 44 34 30 28 30 32 33 33 37 53 70 64 56 58 80 94 99 96 93 100 94 92 100 100 100 100 100 98 100 100 100 97 97 98 100 98 84 74 63 64 64 61 57
51 56 53 45 64 87 100 98 86 83 77 53 37 68 63 58 62 78 96 79 64 69 86 99 100 100 100 100 100 100 95 97 100 100 88 84 89 89 80 75 71 69 69 65

GFSCGP_500_rhum_054.txt.gz
RH
100 97 75 82 69 42 30 29 27 24 45 88 98 97 89 86 89 89 88 78 78 85 91 87 60 54 50 51 71 85 90 95 95 68 62 55 60 64 67 64 58 50 43 37
100 86 100 100 80 57 36 31 31 26 60 88 89 95 99 78 87 96 94 83 75 83 93 96 90 80 68 66 68 69 73 88 87 90 77 67 66 67 67 63 54 46 42 37
98 96 93 97 96 76 54 40 34 27 40 98 96 85 83 91 100 97 96 100 89 81 94 96 97 92 85 84 81 94 87 79 84 86 83 88 81 69 65 60 52 46 41 36
100 100 100 94 84 96 58 41 37 30 25 46 62 39 51 86 88 81 88 78 94 86 87 88 93 96 95 97 97 100 97 96 93 98 96 93 80 67 59 54 48 44 40 34
100 97 96 92 91 90 77 37 32 35 36 28 34 38 50 60 81 80 79 71 76 93 91 84 96 98 95 94 95 98 90 94 96 93 96 96 90 78 63 53 46 42 40 38
100 100 100 100 96 99 92 33 26 25 28 20 21 26 28 58 65 83 95 92 66 80 93 95 99 94 86 89 97 97 97 97 96 97 95 90 85 93 97 82 66 60 42 44
99 100 100 100 95 98 96 62 39 23 20 17 19 22 21 50 51 54 92 89 88 76 81 90 90 94 93 95 95 96 96 93 86 84 87 91 93 91 87 89 90 86 73 71
98 100 96 84 69 85 84 82 48 24 18 17 22 25 41 52 57 48 58 84 70 88 92 96 99 100 100 100 93 96 91 90 90 88 88 88 85 81 72 64 57 51 46 43
100 78 73 72 65 66 60 66 42 24 20 21 21 24 40 60 63 63 68 83 70 52 49 82 96 97 97 99 98 99 89 80 80 86 88 87 86 79 69 60 54 50 49 47
85 75 76 73 80 72 73 65 40 21 19 19 15 20 28 35 42 42 53 63 66 54 62 58 59 81 94 95 95 97 97 95 88 81 73 69 65 64 62 60 57 52 48 46
76 78 70 66 57 78 70 53 34 24 24 17 14 12 14 22 28 31 30 32 40 60 71 80 69 67 94 94 90 88 96 96 92 83 77 72 67 65 63 62 61 60 58 54
81 81 83 74 76 68 62 54 43 38 34 32 30 16 13 17 40 43 39 34 32 32 31 36 50 64 67 74 90 98 95 92 96 87 76 72 70 64 61 63 63 60 58 54
80 76 74 71 65 62 63 64 58 52 44 35 31 22 25 41 62 44 36 27 25 24 20 20 19 19 24 28 39 54 74 93 100 97 86 79 72 64 64 69 69 64 65 64
64 73 74 68 61 67 66 64 59 48 38 47 38 62 70 72 68 51 35 36 34 28 22 16 15 16 17 20 23 35 40 44 57 79 78 68 68 69 65 63 62 61 64 64
74 70 66 64 66 64 74 77 76 61 63 43 58 47 62 77 66 59 37 35 30 26 20 19 18 19 20 22 31 27 33 50 56 54 57 63 69 66 64 62 62 62 62 60
80 76 77 78 74 84 88 84 67 59 52 43 44 35 99 44 46 42 39 28 24 21 35 39 39 30 30 34 40 55 55 55 57 68 68 68 67 67 70 63 48 46 47 40
64 56 57 56 62 70 74 81 70 73 83 65 53 78 81 74 68 54 70 64 66 70 74 71 60 57 61 58 61 74 72 72 75 75 86 86 78 78 75 56 51 48 50 35
86 99 100 100 100 100 100 98 94 97 86 78 81 77 78 76 72 77 70 71 67 66 64 72 69 69 74 84 90 90 88 91 94 89 85 89 86 84 88 83 77 68 65 63
66 68 68 67 74 77 74 73 69 62 58 57 58 59 62 63 65 72 62 63 76 75 70 64 72 71 81 94 98 96 96 90 88 90 92 93 87 83 88 93 84 90 90 93
75 76 79 74 75 78 77 69 65 61 50 48 49 50 51 51 49 59 42 41 43 49 60 73 70 74 81 86 90 92 95 100 99 94 92 99 99 98 98 97 96 97 96 98
81 90 91 93 83 79 69 60 53 47 42 42 52 58 61 68 60 62 55 50 50 48 57 72 70 77 76 89 93 93 96 94 85 92 91 99 100 98 98 99 91 87 75 65
64 80 97 100 87 74 63 56 46 46 57 69 66 59 62 73 84 71 60 58 59 56 61 71 68 70 73 86 97 93 86 87 88 96 100 100 99 100 100 100 100 88 76 71
53 48 50 69 92 97 93 89 72 56 57 59 61 61 62 84 98 85 65 54 56 63 64 60 51 59 79 75 77 100 99 96 100 100 100 100 100 100 99 100 100 99 99 98
52 49 46 42 39 39 44 61 77 85 86 82 71 67 69 76 88 100 97 82 79 60 55 53 54 58 61 63 68 76 90 99 100 100 100 100 100 100 100 99 99 99 100 99
70 60 53 49 50 48 47 35 31 35 32 32 37 52 74 69 81 85 96 100 98 86 79 62 58 74 88 100 99 85 89 100 100 100 99 100 100 100 100 100 100 100 100 99
70 64 56 52 50 55 78 92 85 91 90 82 75 75 51 43 69 68 71 79 100 100 100 100 100 100 100 100 100 100 100 100 97 99 100 100 100 100 100 100 100 100 100 93

GFSCGP_500_rhum_057.txt.gz
RH
100 99 86 72 77 100 65 42 84 93 80 90 82 99 99 95 48 48 89 89 93 97 86 84 92 46 42 38 35 32 42 59 73 81 95 76 42 45 53 53 54 58 62 62
100 100 100 100 99 93 62 43 53 69 82 86 96 95 98 97 83 57 65 82 68 78 80 74 89 94 62 55 46 40 44 52 69 73 91 91 96 72 66 63 62 67 68 67
100 100 100 98 90 87 81 39 43 63 59 64 82 77 85 98 97 100 88 92 88 77 79 80 91 96 96 83 69 55 50 51 58 60 64 72 89 95 90 83 78 76 72 69
98 100 93 99 100 100 97 51 50 34 39 61 76 86 56 88 100 93 89 93 96 89 94 96 82 95 95 96 86 75 71 64 64 70 70 72 81 92 86 83 82 82 77 66
100 100 99 100 100 100 96 57 43 40 38 33 28 84 65 55 86 98 96 100 100 100 94 98 67 87 96 98 97 85 79 82 78 77 94 88 82 92 89 85 93 93 86 70
97 100 100 100 100 93 100 93 59 42 39 32 23 19 26 25 28 44 79 96 95 91 85 78 90 92 88 90 95 97 97 97 97 98 97 99 96 92 91 89 89 85 87 86
100 98 99 97 100 99 87 98 90 62 42 29 21 16 19 19 33 55 92 84 80 79 78 73 73 72 80 89 92 91 96 95 96 94 97 94 93 96 92 96 94 91 87 90
99 100 100 100 98 96 96 96 75 48 35 26 21 21 19 26 28 35 66 80 74 70 72 81 72 73 82 89 90 92 98 96 97 96 97 97 96 95 87 89 89 90 90 82
96 94 100 96 89 99 87 92 70 53 36 24 24 19 22 25 32 38 41 47 61 61 76 91 89 90 81 93 97 98 97 94 97 99 96 96 95 88 90 84 84 86 87 78
97 91 98 90 86 84 82 84 83 60 50 34 23 20 24 23 30 51 56 56 52 55 49 71 82 67 82 100 96 98 98 96 97 97 94 92 93 84 81 80 85 86 77 68
99 77 78 78 72 76 66 68 68 63 46 32 31 29 17 17 24 30 39 50 43 54 85 81 74 60 56 55 90 96 98 98 97 98 98 97 97 98 88 76 71 68 65 63
95 82 82 84 69 63 57 63 73 70 47 27 22 23 19 13 14 18 30 35 33 32 34 45 58 53 49 54 62 84 80 90 95 94 96 97 98 98 90 84 80 74 68 66
79 73 74 67 62 65 63 75 70 55 38 30 34 36 35 36 30 21 20 35 31 28 28 27 27 26 24 24 26 35 50 61 80 88 96 94 96 99 98 95 81 76 72 72
75 78 75 69 68 81 79 79 74 62 47 56 48 52 52 56 46 38 23 19 35 28 25 31 29 24 20 16 16 15 17 21 26 35 44 59 83 92 100 97 88 77 74 72
76 76 70 72 71 70 67 66 64 55 70 51 68 62 61 64 49 42 36 34 40 44 25 31 30 28 22 19 17 16 14 15 15 16 18 26 53 62 67 64 70 71 69 66
74 72 67 64 68 71 71 63 61 62 76 68 67 57 55 44 41 37 35 37 36 33 40 32 28 26 22 21 22 21 26 32 32 37 41 37 36 49 60 65 67 67 68 66
76 70 71 69 70 68 65 71 74 79 78 66 60 54 53 50 48 53 41 34 36 38 41 35 39 32 29 36 41 50 48 46 47 53 63 65 63 65 71 77 76 70 75 72
65 62 63 63 58 55 54 58 57 61 64 59 46 48 66 64 72 80 64 65 62 69 67 65 58 57 56 55 64 64 66 76 81 84 82 77 75 76 78 82 88 90 87 85
64 68 76 80 86 77 83 75 78 81 68 78 78 77 69 68 78 87 68 80 75 79 73 73 70 72 76 71 64 60 71 78 83 88 87 85 85 80 81 82 83 86 81 85
60 64 66 67 68 68 48 67 70 69 60 60 58 54 51 51 52 58 57 55 57 59 54 55 66 67 70 71 71 70 74 84 87 88 87 89 87 88 84 78 83 94 92 87
63 67 69 76 78 74 74 75 79 76 58 55 52 47 44 45 48 60 62 59 52 53 50 46 43 51 61 76 80 77 85 84 84 89 93 90 88 94 80 88 100 100 97 100
63 66 72 80 85 84 87 81 75 63 55 46 41 42 59 63 60 61 68 75 71 63 58 57 56 53 56 72 70 68 79 82 87 87 83 82 84 88 97 98 100 100 100 100
69 62 59 52 54 69 90 92 82 76 70 56 50 59 65 66 61 62 74 82 76 59 55 57 61 63 66 69 63 62 73 84 91 86 82 85 88 100 100 100 100 100 100 100
75 66 58 52 51 49 44 39 36 40 72 93 87 79 68 50 52 61 72 79 86 81 76 70 63 61 58 54 52 68 64 64 66 76 85 100 100 100 100 100 99 100 100 100
92 86 84 77 67 62 53 47 45 40 33 31 35 39 44 47 57 72 70 64 74 84 93 89 81 71 59 52 54 58 64 82 76 77 86 100 100 99 99 100 100 100 98 99
98 92 97 88 74 70 60 51 46 52 49 48 68 83 81 73 73 67 59 57 70 71 76 90 100 99 88 86 81 90 97 100 100 95 100 99 95 97 100 100 99 98 100 100

GFSCGP_500_rhum_060.txt.gz
RH
97 98 69 58 81 100 85 100 100 100 99 83 57 71 62 53 37 40 97 87 93 96 100 91 97 90 42 45 43 43 42 36 34 27 27 59 73 80 69 30 20 26 47 54
100 87 84 71 92 100 99 100 96 98 97 90 64 87 71 43 38 42 62 93 96 98 98 85 95 92 94 70 58 52 47 37 34 33 32 47 62 80 91 93 59 44 55 60
100 100 100 98 100 100 98 92 95 98 99 98 96 75 59 59 37 44 58 59 63 88 97 81 84 97 92 95 94 87 81 45 40 36 37 38 52 71 83 82 84 98 78 73
97 100 100 98 100 91 98 98 96 92 90 97 86 81 92 90 74 94 84 60 69 52 62 78 72 84 94 95 96 94 83 92 58 52 45 53 59 74 70 71 84 83 91 83
94 96 95 100 100 100 100 96 100 90 71 81 65 54 47 53 90 83 98 90 80 70 69 72 60 63 82 75 82 87 92 97 97 94 75 71 64 65 54 55 64 74 92 89
99 99 100 99 98 83 83 85 82 74 44 51 44 48 59 49 59 68 88 100 100 99 100 94 66 66 78 88 92 83 81 85 79 92 82 76 81 80 77 77 81 74 76 86
97 100 100 93 86 100 100 96 95 66 44 38 34 42 32 32 30 30 33 44 78 90 96 91 68 74 83 89 91 93 95 95 87 93 91 92 98 90 93 99 91 89 86 83
100 100 94 100 100 99 95 100 98 65 45 38 39 37 31 28 26 24 24 24 30 32 64 87 87 73 83 79 80 95 94 96 96 98 96 97 95 96 98 100 98 95 92 91
76 94 92 91 91 94 92 92 77 87 79 60 51 38 27 33 25 22 19 17 26 54 68 48 68 74 77 76 72 72 82 97 95 93 97 96 96 95 96 94 97 98 95 90
100 100 94 100 96 100 99 86 90 89 94 70 69 60 38 29 21 19 21 23 24 25 47 66 76 64 66 79 77 71 70 95 95 93 90 89 90 91 93 97 96 96 93 90
96 90 94 98 99 100 98 100 100 92 74 95 98 54 31 24 20 17 17 26 40 44 40 36 46 51 55 82 85 72 83 96 100 98 95 97 99 97 97 94 94 97 97 92
99 83 97 100 94 90 89 90 96 100 100 91 66 53 38 24 16 15 20 22 21 26 42 46 40 44 54 82 87 77 70 70 71 75 95 94 97 97 94 99 98 97 94 98
91 79 90 85 76 80 81 92 99 96 84 75 60 41 31 27 24 23 18 13 12 15 24 31 31 29 29 36 44 50 53 53 51 57 71 90 90 96 94 95 97 96 97 98
93 92 78 78 85 79 78 81 92 83 71 74 56 40 44 51 43 30 24 21 13 14 15 28 33 28 26 26 24 21 17 17 17 17 19 22 28 37 64 87 97 97 98 97
86 80 80 81 84 86 87 86 82 74 84 58 66 56 62 53 43 36 35 39 36 36 35 37 40 39 25 26 28 28 24 20 18 18 18 20 20 23 25 26 38 50 70 86
85 93 86 89 88 85 83 75 74 77 77 67 66 61 57 47 52 48 48 39 35 31 29 29 30 35 42 28 24 23 24 23 21 19 24 28 28 33 44 44 48 49 53 56
81 84 82 80 79 78 75 76 74 72 72 65 59 56 56 57 57 52 45 38 39 30 24 25 30 32 34 33 34 31 29 27 31 37 36 37 40 44 44 51 64 63 61 63
69 75 76 76 73 62 55 56 57 54 51 50 54 51 61 62 58 60 44 49 44 46 50 53 49 46 58 55 46 59 65 59 62 60 57 60 63 69 68 67 68 66 64 70
71 64 60 57 55 52 50 47 52 51 50 50 51 59 69 73 80 75 62 55 58 59 63 72 73 63 69 71 64 71 67 73 72 70 67 71 78 79 80 81 82 78 70 71
56 56 56 56 56 57 51 58 62 61 60 74 73 71 68 61 58 57 51 46 46 49 54 66 69 64 64 59 72 76 68 69 68 67 74 82 80 82 85 85 86 85 85 82
49 54 55 58 54 54 60 72 79 67 63 65 71 71 65 60 52 50 47 45 41 40 43 44 47 48 46 46 49 59 59 68 70 73 78 76 78 82 87 87 89 93 84 90
62 66 63 60 56 65 84 87 91 83 83 81 71 60 53 47 44 46 55 61 61 60 57 59 64 61 56 53 50 48 50 68 75 73 75 72 83 82 81 83 78 89 94 96
60 75 72 68 60 55 52 51 64 82 96 93 83 72 54 48 50 68 72 68 62 63 76 81 79 61 57 60 60 62 62 72 77 70 69 69 75 76 81 92 92 100 99 99
86 90 78 71 60 60 56 53 52 52 46 40 36 48 79 80 74 66 62 60 57 63 72 78 85 75 71 64 64 66 69 69 64 58 68 63 64 78 85 94 100 98 95 99
86 89 79 83 76 95 90 76 73 66 55 46 47 43 36 31 42 52 50 54 59 69 69 65 76 88 95 85 78 68 61 57 55 74 77 63 67 80 86 97 100 100 98 94
72 70 91 100 100 97 98 96 87 80 69 56 45 48 60 52 62 75 86 81 72 62 49 51 68 74 80 94 100 98 83 65 60 65 81 100 92 80 89 92 89 100 100 100

GFSCGP_500_rhum_066.txt.gz
RH
95 91 59 100 83 74 91 99 98 99 99 99 100 98 97 97 76 50 32 25 22 23 33 72 55 63 84 93 91 90 93 97 93 95 87 78 63 51 51 40 27 26 37 67
96 95 78 98 96 97 100 99 99 98 98 98 97 98 98 88 73 46 44 54 46 53 43 47 72 86 78 85 94 96 96 96 96 95 90 62 49 45 42 32 28 28 26 51
98 89 99 100 89 100 96 99 99 97 100 98 97 96 91 87 94 96 69 48 46 41 28 30 68 76 97 86 80 83 95 94 89 87 92 96 81 80 55 52 40 33 39 35
100 84 100 99 94 94 100 97 100 95 98 98 98 91 78 75 91 86 67 62 57 37 34 34 35 56 82 87 89 95 97 93 95 94 96 96 96 92 87 76 72 55 48 42
90 88 100 95 95 100 99 100 99 100 99 99 97 87 98 64 53 60 59 51 53 47 39 34 31 31 79 86 96 98 100 98 97 98 98 99 95 94 96 95 94 97 94 92
97 78 65 76 94 97 96 84 92 97 100 99 96 90 75 68 60 48 52 56 53 46 40 37 34 29 29 50 98 96 92 100 99 98 87 94 97 96 99 96 96 96 96 96
92 75 82 51 59 62 57 73 78 79 98 96 98 80 78 71 59 61 52 53 52 47 43 43 36 40 33 37 59 86 95 98 96 96 89 90 96 91 89 87 96 95 96 98
99 100 100 77 52 43 60 98 88 81 68 91 98 78 66 59 62 61 56 54 55 45 44 44 44 58 70 68 60 61 72 72 78 78 79 86 93 98 87 78 92 97 94 95
73 76 100 80 80 74 74 82 99 99 99 88 98 89 64 54 49 48 49 51 49 46 42 45 35 26 66 69 82 88 73 64 64 62 59 55 72 81 82 90 94 94 94 91
87 74 88 96 96 82 70 71 96 99 96 89 80 67 65 61 50 39 38 38 35 33 29 33 34 18 22 52 66 86 78 88 88 83 78 72 76 84 90 92 100 97 97 99
81 82 71 71 73 86 88 82 76 83 79 66 59 52 51 44 41 39 37 37 31 20 17 19 15 14 13 17 28 42 54 75 91 85 77 72 77 77 73 88 99 99 96 96
72 66 77 78 80 91 100 93 91 90 85 78 70 62 60 51 45 43 47 54 44 22 17 16 17 17 18 16 17 19 29 47 61 70 70 71 77 80 78 82 79 95 96 91
69 78 94 76 80 84 88 90 96 92 92 94 96 97 88 78 72 66 65 65 29 20 17 16 16 16 16 20 24 26 31 31 32 40 49 59 57 89 89 93 99 96 86 70
69 85 86 88 90 96 96 97 98 95 100 100 100 95 89 90 88 70 58 35 24 18 16 15 13 12 12 12 14 17 21 23 25 23 23 33 52 62 72 76 74 67 59 50
55 63 77 79 76 80 85 84 87 93 100 98 100 96 99 91 90 68 46 34 29 27 25 28 25 26 28 22 17 16 17 21 27 30 28 24 23 24 22 21 20 21 20 18
70 72 88 80 81 84 84 82 76 85 79 96 97 91 85 94 87 77 73 53 47 38 38 40 39 38 36 35 34 32 29 29 30 34 34 29 27 26 27 25 26 25 22 20
75 74 81 82 80 79 84 81 87 91 81 89 93 99 88 94 96 86 75 62 55 51 47 45 42 37 32 29 30 38 35 30 29 31 32 34 34 28 25 24 26 27 28 26
69 68 70 73 73 73 76 74 69 68 69 73 81 87 83 79 70 59 55 59 53 47 47 44 39 35 32 29 26 27 39 33 32 28 29 35 39 38 37 36 46 51 53 56
65 62 62 63 67 63 60 60 62 62 58 58 59 61 62 60 55 52 50 48 44 40 40 40 40 41 44 41 35 35 48 44 43 49 44 57 66 53 52 64 65 61 54 55
45 57 58 59 55 53 58 58 59 60 53 72 72 75 79 87 84 86 74 75 76 71 71 75 74 74 69 65 60 59 64 68 75 69 62 70 75 78 81 78 75 69 60 57
34 39 47 49 46 43 44 50 49 60 68 70 69 72 78 82 78 81 73 70 66 64 60 52 52 54 52 49 47 46 47 51 54 62 69 67 67 72 84 91 83 75 70 70
20 20 22 26 30 33 41 47 51 56 54 57 61 67 73 82 89 90 91 86 79 71 61 54 50 50 49 45 46 50 55 57 58 56 56 54 54 56 56 73 82 83 74 73
16 16 20 22 26 31 38 45 46 54 58 57 55 54 51 50 50 49 47 46 50 71 81 70 50 56 64 64 66 63 64 70 74 69 65 63 61 63 62 64 74 86 80 74
7 7 11 20 36 38 48 58 64 65 64 65 70 77 80 81 80 74 69 62 53 44 38 38 69 85 76 65 65 64 65 72 79 81 75 67 65 67 70 72 73 84 85 79
8 8 8 7 10 8 14 19 27 37 48 59 64 72 79 88 92 97 100 92 78 65 51 54 47 40 57 68 63 60 65 68 69 83 90 87 87 74 71 73 75 74 70 73
13 14 13 13 13 10 9 7 8 9 10 11 19 32 55 73 80 87 94 99 100 100 98 85 83 82 89 93 76 64 57 55 61 80 93 100 100 99 86 68 64 61 77 81

GFSCGP_500_rhum_069.txt.gz
RH
72 72 83 94 100 98 100 100 100 95 97 100 97 93 76 74 57 44 53 70 95 100 88 43 42 54 89 95 96 96 97 96 96 96 96 96 96 94 78 92 94 77 72 51
78 84 75 93 100 100 100 97 98 99 99 99 99 98 97 90 69 54 50 58 66 96 71 60 59 42 39 81 99 91 93 96 94 94 95 96 94 95 78 59 53 47 54 44
71 72 67 91 97 97 97 87 99 99 98 100 97 96 99 98 88 67 56 48 50 54 48 40 38 37 42 41 58 94 94 90 92 88 81 88 86 91 97 91 55 51 46 43
86 86 63 99 97 96 99 96 98 98 98 98 99 99 98 92 98 88 86 72 50 42 36 49 46 38 32 43 46 82 92 96 88 92 100 99 94 96 93 96 96 77 79 83
94 85 79 99 100 100 87 92 96 93 96 97 98 91 95 97 94 70 79 82 58 52 50 47 39 34 40 38 41 59 83 83 98 91 90 95 95 96 98 92 98 95 97 97
96 90 100 100 98 100 98 97 96 84 85 83 97 94 75 73 86 96 98 97 76 62 46 51 55 37 36 35 32 32 61 90 97 92 93 96 97 94 96 96 96 95 96 97
77 92 100 96 89 98 99 100 100 100 99 91 97 90 82 80 83 76 65 61 54 54 48 50 52 43 38 39 38 33 32 61 69 78 82 90 98 92 82 86 98 94 94 96
79 98 94 86 82 82 81 85 90 93 99 99 98 90 75 68 85 80 65 56 67 68 63 58 54 48 44 46 50 46 39 34 45 65 68 66 89 92 96 96 96 94 97 97
88 63 51 47 63 67 60 50 59 81 90 99 94 76 68 63 65 58 60 65 60 55 55 49 46 41 42 40 39 52 69 70 59 57 56 70 77 81 89 93 91 97 98 98
96 83 93 65 50 53 53 72 80 86 84 76 96 79 72 62 56 58 61 59 56 54 46 44 42 39 37 36 32 32 44 61 76 76 73 63 59 59 56 65 72 75 93 96
98 87 94 80 57 58 52 64 88 100 100 96 95 90 94 80 62 53 49 49 46 43 39 37 34 33 32 37 36 23 30 52 65 83 100 97 93 88 81 77 80 85 84 85
85 88 86 85 87 79 62 72 65 90 93 90 88 79 89 78 72 64 48 47 47 41 37 38 34 27 24 26 19 18 17 20 26 40 54 71 90 93 91 89 88 88 88 87
66 58 67 71 76 91 97 85 68 62 62 62 63 61 62 57 54 51 45 40 38 38 46 49 29 20 17 16 15 16 16 15 15 16 16 22 34 46 57 62 63 66 76 86
55 60 86 73 70 68 77 82 90 94 90 80 75 75 79 69 59 53 50 48 51 56 60 53 27 19 16 14 15 15 14 14 14 16 22 28 31 29 27 27 33 41 53 54
45 49 62 56 59 70 72 74 78 82 89 82 75 74 76 78 78 79 77 79 77 73 68 47 26 20 16 15 13 12 12 13 14 15 15 18 20 24 26 24 22 25 27 28
27 33 36 39 58 65 63 72 74 66 69 72 68 70 71 77 83 84 87 93 78 53 35 26 20 17 15 15 23 28 29 27 27 23 22 24 25 26 29 30 28 23 21 21
52 50 55 65 65 62 62 66 65 63 64 72 65 69 66 80 81 84 87 81 81 73 52 34 34 40 42 41 38 38 36 33 30 27 27 25 24 24 25 27 30 30 28 24
55 60 63 66 67 62 62 61 62 65 70 74 74 72 69 69 67 67 69 72 66 61 63 60 56 54 50 46 42 38 34 35 33 28 28 29 29 28 27 26 26 29 33 35
44 51 58 54 55 54 53 53 50 49 51 53 56 59 59 55 52 54 55 56 54 52 50 48 47 48 47 42 37 36 34 33 32 30 27 28 27 30 30 32 32 39 46 45
32 45 48 51 51 49 53 50 49 50 46 53 52 54 62 62 59 65 66 64 61 59 60 58 55 51 46 47 41 41 41 44 45 52 47 43 44 42 53 53 59 70 72 78
27 31 32 31 31 32 31 28 27 29 34 38 46 47 56 62 62 65 65 65 64 64 63 60 60 63 70 71 69 68 65 64 64 62 56 54 55 70 79 74 79 77 80 79
11 12 14 15 16 18 15 17 23 22 28 34 42 48 52 56 58 57 61 67 76 83 85 80 76 75 71 63 57 56 56 54 51 49 48 48 47 48 50 56 64 66 65 65
8 7 8 8 11 10 11 11 14 18 20 25 25 30 44 52 59 62 64 64 62 58 53 50 47 50 60 76 72 53 52 55 57 58 61 64 67 68 66 64 59 55 55 60
8 8 8 9 9 10 10 10 10 9 9 9 12 21 27 31 36 48 64 68 75 83 88 92 84 64 55 45 39 62 87 72 74 73 68 68 70 81 77 66 64 64 66 66
12 12 13 13 13 14 15 16 18 19 18 16 14 13 11 10 10 12 15 28 52 73 79 82 84 87 86 71 54 46 40 72 74 66 68 71 70 77 87 85 83 74 72 72
17 18 19 20 20 22 24 26 26 28 28 28 28 29 29 28 25 23 19 15 13 27 44 47 46 70 95 100 100 92 61 64 81 83 66 59 67 79 86 99 99 93 84 74

GFSCGP_500_rhum_072.txt.gz
RH
98 81 86 96 100 82 78 71 68 69 89 100 98 89 99 86 95 95 98 94 96 95 95 95 100 96 94 96 96 96 93 95 93 95 96 90 96 96 97 95 92 76 55 67
96 85 98 100 100 89 82 97 99 98 100 99 100 92 95 90 89 96 96 96 94 94 97 95 96 94 97 90 85 97 97 96 90 95 95 95 96 97 96 92 92 97 97 84
99 99 100 99 100 100 98 100 100 100 98 99 96 86 97 100 88 88 86 89 88 80 82 86 79 83 80 77 74 87 88 93 96 96 94 96 95 95 96 96 96 94 71 63
75 78 91 87 99 100 97 90 98 100 100 99 99 98 98 94 80 92 89 79 69 64 70 88 95 95 78 64 57 55 67 93 94 96 96 96 97 97 96 96 97 96 95 94
99 79 75 84 91 99 95 99 94 96 99 99 96 98 96 97 99 86 93 90 82 83 83 89 94 82 53 40 52 40 38 64 80 66 89 94 95 96 95 96 97 97 96 95
83 81 96 95 100 77 80 89 97 99 99 100 98 99 100 95 88 96 98 99 98 93 86 82 76 67 45 46 39 37 36 34 46 66 83 89 86 93 96 95 91 96 96 97
87 97 100 100 92 92 89 82 97 100 90 95 93 99 94 88 98 100 98 96 98 99 97 81 69 60 52 48 44 40 35 29 28 32 52 75 94 94 85 94 97 97 96 96
93 98 99 100 100 100 100 100 100 100 90 83 97 99 93 79 89 91 97 94 88 94 92 86 73 68 68 58 50 44 36 32 26 24 25 27 39 64 88 90 96 95 96 97
84 97 100 89 93 94 99 96 85 95 95 82 89 96 94 87 97 89 97 99 92 85 79 69 63 59 55 43 41 40 39 36 36 32 32 27 26 34 42 59 83 93 96 98
72 69 69 91 81 68 68 82 72 76 92 100 100 96 85 82 82 91 76 57 54 50 57 64 60 58 59 54 42 38 39 36 39 38 41 46 40 42 53 58 60 65 76 95
79 71 67 56 62 58 58 54 50 60 63 84 100 89 77 68 59 52 51 48 46 41 39 55 54 52 46 41 42 39 39 39 36 34 34 43 49 56 63 59 58 63 68 76
81 83 84 78 85 82 62 62 60 65 75 76 82 73 77 70 61 59 59 61 60 58 63 66 62 51 43 39 35 33 32 32 35 31 23 34 67 68 52 54 66 80 89 85
56 59 62 62 66 68 68 69 66 72 73 85 87 87 78 76 79 63 55 60 58 51 48 45 42 39 37 36 31 29 25 26 23 18 16 16 19 27 41 46 46 55 72 74
52 69 63 60 63 63 70 76 65 57 47 52 52 52 52 52 56 60 57 57 55 48 42 40 40 38 44 50 45 32 23 18 17 16 13 13 14 15 19 23 29 33 33 31
34 44 48 41 42 56 61 60 58 63 66 63 57 48 49 50 55 51 49 52 52 50 47 44 42 42 46 48 53 43 24 18 15 13 14 15 15 16 16 17 20 23 24 25
19 23 24 30 28 43 46 51 56 55 55 59 62 64 69 66 64 67 71 72 71 72 70 68 67 68 68 65 65 42 23 18 15 14 13 13 13 16 18 16 19 20 23 26
34 34 26 32 38 41 46 48 47 44 45 46 50 60 61 57 56 57 71 74 76 81 84 82 87 78 59 48 51 28 20 17 16 18 22 27 29 27 26 25 25 24 22 20
33 36 37 41 36 46 49 44 43 44 43 43 44 46 48 51 52 55 58 60 61 64 69 74 76 83 78 60 42 43 36 39 40 42 38 34 32 30 28 27 26 24 22 21
26 29 26 28 38 45 46 42 42 43 42 42 38 37 36 36 36 36 38 44 48 49 54 61 64 68 73 80 84 75 63 53 49 47 46 41 35 31 29 28 27 26 25 28
24 24 25 38 41 35 42 45 41 39 36 38 44 44 46 46 44 46 45 47 51 54 55 55 55 56 59 61 59 60 57 52 44 43 42 40 38 36 34 34 34 35 37 36
18 20 21 23 24 25 21 20 18 18 17 18 21 24 25 32 34 38 40 42 44 46 46 47 51 56 58 59 58 59 60 60 61 62 57 50 49 47 47 53 54 58 60 61
7 9 9 9 10 11 9 8 10 10 8 9 11 10 10 11 12 13 18 28 39 46 50 50 51 51 49 50 54 66 69 65 61 60 59 57 57 57 59 58 56 51 50 54
6 6 6 6 8 8 9 8 8 8 8 10 10 12 12 13 14 13 13 13 14 15 23 35 50 65 68 72 69 61 54 49 56 75 73 56 53 54 53 50 51 48 42 44
8 8 8 9 10 10 10 11 11 11 12 13 13 15 17 17 18 19 22 23 21 19 14 12 13 31 70 79 82 78 80 87 69 53 44 78 71 63 61 57 58 62 62 62
13 14 14 15 15 15 15 16 16 16 16 16 18 19 19 21 21 24 29 32 36 38 35 34 30 21 22 51 82 87 85 80 90 89 63 51 75 85 77 74 70 71 75 78
19 19 21 22 22 23 23 22 22 21 18 18 20 21 21 23 23 24 28 28 32 43 48 51 54 54 43 29 23 33 43 58 88 97 100 86 67 89 91 76 86 79 74 80

GFSCGP_500_rhum_075.txt.gz
RH
84 71 73 83 99 100 100 99 69 30 15 24 98 97 84 98 91 100 99 93 98 94 97 97 96 93 96 96 97 92 93 97 97 96 92 95 96 96 96 94 94 95 98 96
76 69 81 100 100 100 98 100 97 83 38 54 100 98 91 96 100 99 97 85 95 95 97 97 97 96 94 97 92 95 96 98 96 97 96 98 96 96 94 95 96 96 96 97
92 77 99 100 100 100 90 100 100 100 77 79 98 99 91 97 99 97 92 97 99 95 97 95 97 98 97 96 95 95 96 94 93 96 97 96 96 97 98 95 96 97 96 96
94 94 100 99 99 100 80 87 97 97 97 100 99 98 100 99 97 99 96 95 97 95 95 95 96 97 96 97 92 96 95 96 93 96 98 97 97 96 97 97 97 96 97 96
81 89 92 93 100 100 98 99 99 100 100 96 98 99 97 92 92 99 100 97 97 97 97 96 96 89 92 82 86 75 54 80 96 96 97 97 97 96 96 97 97 96 96 97
73 66 78 80 76 100 99 95 100 100 92 99 100 99 98 99 84 88 100 94 97 98 96 94 93 91 96 89 90 66 51 56 64 73 84 90 95 96 96 97 96 96 96 96
76 97 99 100 74 96 95 91 87 78 90 99 99 83 88 79 90 90 98 99 95 95 94 90 88 94 87 81 77 56 51 45 48 48 58 42 38 72 95 96 96 95 96 96
95 96 100 100 100 83 86 76 69 68 87 99 100 97 89 98 86 94 96 87 83 86 100 99 94 91 88 86 70 48 46 51 53 51 34 31 28 26 33 42 65 80 90 95
99 100 92 100 100 100 88 98 92 94 100 94 93 98 85 82 92 97 100 92 98 98 98 98 97 95 91 76 61 58 64 59 51 46 37 32 31 34 33 27 24 36 65 91
92 92 93 100 98 99 89 90 99 99 92 97 96 85 84 88 85 87 84 93 95 91 96 95 98 100 100 89 78 72 64 55 50 44 36 36 33 29 31 36 34 30 31 44
70 78 83 71 66 74 88 75 82 95 100 98 86 84 92 78 89 94 94 98 97 94 83 86 83 82 78 75 73 69 62 58 44 41 40 35 31 29 28 26 31 41 48 47
74 70 64 51 47 43 63 65 51 58 52 92 95 95 78 81 84 88 92 84 79 75 76 74 72 68 60 52 52 56 51 47 44 42 36 33 35 32 28 26 29 35 49 56
64 64 59 51 47 42 37 36 48 44 41 48 40 59 66 72 70 65 64 62 64 64 61 61 65 67 69 65 62 52 43 37 34 34 31 27 26 26 20 18 18 18 21 27
47 47 37 47 51 54 57 40 32 32 36 54 60 54 55 58 58 59 58 58 56 55 59 63 56 50 48 46 44 42 39 37 38 34 28 22 21 21 18 16 13 13 11 11
34 28 28 29 44 46 46 47 48 44 43 42 38 40 39 47 51 46 48 54 53 50 49 52 55 52 45 42 42 42 40 40 44 46 47 38 28 19 15 14 16 18 18 18
23 19 13 26 36 43 49 54 52 53 54 52 51 55 51 48 44 36 29 34 41 45 47 48 48 47 47 48 46 44 41 41 44 45 48 52 30 18 16 16 16 17 19 19
20 23 20 27 32 38 42 44 44 42 42 42 34 38 45 44 45 47 46 44 43 45 50 56 62 65 66 63 62 66 67 66 62 57 59 60 40 20 16 14 13 14 16 19
28 29 26 26 30 35 42 43 42 40 38 35 34 34 36 38 38 38 38 39 41 43 46 46 48 52 58 67 73 80 89 99 85 59 42 35 31 25 19 17 23 29 32 31
23 23 27 25 23 30 32 35 36 36 29 28 28 28 27 28 30 33 36 37 37 38 41 44 46 46 48 49 56 69 83 96 95 93 87 68 62 59 52 45 41 38 35 32
22 22 21 23 22 20 29 29 30 29 31 31 27 27 27 29 26 24 24 26 25 23 23 24 27 30 38 42 46 48 53 59 64 69 79 96 97 90 72 58 53 48 43 37
18 12 12 13 12 12 12 12 11 10 10 8 6 7 7 7 7 7 8 8 8 9 9 10 11 13 18 26 32 36 41 45 47 53 61 65 65 65 65 61 48 45 43 40
7 6 6 6 6 7 7 6 6 6 6 6 6 7 7 7 8 9 9 10 11 11 12 13 16 16 16 17 16 14 16 30 48 53 50 52 65 68 62 57 52 49 52 57
5 5 5 5 5 6 6 6 6 7 7 8 8 8 6 7 6 7 7 8 8 8 9 12 16 25 27 30 31 31 28 20 15 38 56 70 67 55 52 74 74 61 57 54
8 8 9 11 10 11 12 12 12 13 14 15 15 15 14 14 13 11 11 10 10 10 10 10 10 12 19 27 25 21 32 39 35 24 27 58 73 87 85 57 51 76 62 57
14 14 15 17 18 19 20 21 21 20 19 18 17 15 13 12 10 10 11 13 14 14 14 14 13 14 18 24 36 45 49 54 54 40 30 34 62 78 90 99 69 51 79 73
21 22 22 23 25 26 27 25 22 20 18 16 13 12 11 13 17 20 20 19 19 19 18 18 20 22 24 28 42 51 51 49 55 65 63 36 36 52 79 96 100 79 78 98

GFSCGP_500_rhum_081.txt.gz
RH
62 52 35 82 80 82 84 82 80 99 100 68 55 34 23 48 34 75 84 97 95 95 69 76 96 84 70 61 78 95 96 95 95 97 95 97 96 95 96 95 94 88 67 57
39 40 71 65 65 79 97 87 73 97 86 88 49 37 20 26 59 99 83 84 87 58 95 96 95 97 94 82 89 94 93 96 94 96 96 96 96 96 96 95 95 96 95 93
72 61 66 92 99 96 98 89 100 100 56 55 47 42 28 31 98 86 76 79 97 61 89 96 97 97 97 90 83 96 96 97 96 97 96 96 96 95 97 95 94 96 96 92
96 98 90 100 100 85 80 90 92 83 75 71 46 35 31 79 100 68 68 76 87 100 98 97 96 97 97 99 95 97 97 97 97 97 97 97 96 96 97 96 94 97 94 95
72 84 100 100 97 85 97 88 99 100 54 71 68 95 94 96 99 90 69 84 94 99 98 98 98 97 96 96 97 97 97 97 98 98 97 96 96 97 97 96 97 94 96 97
62 88 100 100 99 83 98 99 98 100 91 86 57 84 98 97 90 76 90 75 93 94 90 97 97 97 96 96 94 96 94 96 97 96 97 96 97 97 97 96 96 97 96 96
69 78 100 100 98 90 100 99 100 100 100 87 94 98 98 100 75 93 95 98 97 94 94 96 98 97 100 100 96 95 96 96 94 94 95 96 96 97 96 96 97 97 97 96
82 96 96 100 94 90 100 98 99 100 100 100 100 100 97 98 87 97 95 97 97 94 92 97 96 97 90 91 90 90 90 92 91 94 92 92 98 92 94 95 95 96 94 96
92 100 100 89 80 90 95 87 96 98 100 99 98 100 98 96 96 87 78 90 92 99 98 98 96 94 93 93 86 80 82 82 77 80 93 95 94 96 93 92 95 93 75 73
97 100 100 99 93 85 98 99 100 100 100 97 97 77 68 71 72 74 69 73 78 88 95 98 96 96 94 93 90 83 73 65 66 68 76 86 86 90 94 92 93 72 63 48
100 100 100 100 100 98 100 96 96 95 76 81 88 96 98 97 78 84 88 99 100 94 100 98 99 94 89 86 92 95 83 77 71 64 66 64 58 60 63 68 53 52 41 46
100 95 93 95 85 92 99 97 97 91 86 78 75 69 75 83 98 100 95 85 95 96 97 97 96 98 98 97 75 75 76 70 70 72 70 71 68 67 65 58 49 43 34 34
53 52 56 52 52 53 53 56 76 80 85 83 71 62 58 58 63 68 78 84 86 90 86 84 86 88 87 78 69 60 54 43 39 36 39 39 37 37 36 35 36 36 35 34
50 50 50 52 44 41 38 35 37 42 49 57 54 66 59 48 44 47 49 51 57 53 40 36 36 34 44 38 35 28 26 26 23 21 22 22 25 24 27 32 38 36 33 32
51 52 53 51 38 32 29 29 28 27 31 32 32 31 38 42 41 38 34 31 29 28 27 26 24 25 24 22 21 20 18 18 18 17 17 18 19 19 30 43 47 44 40 38
34 42 47 48 47 35 29 25 22 23 23 23 29 29 30 30 28 30 28 27 32 35 30 28 32 35 38 23 26 32 36 43 47 46 49 47 43 40 42 43 39 38 41 44
24 26 30 31 38 42 42 41 40 32 24 24 24 26 23 24 22 24 24 27 29 27 24 24 26 28 26 26 28 27 28 29 31 33 34 36 38 41 42 43 45 45 43 42
19 20 20 19 20 22 23 24 25 24 24 24 24 25 24 24 22 21 21 20 18 17 20 26 29 29 26 24 27 29 29 31 32 34 35 36 37 39 42 45 48 52 56 63
18 23 20 24 23 21 22 24 24 24 24 24 20 16 14 11 10 9 9 8 8 8 8 7 6 5 6 5 7 7 7 6 6 6 7 7 7 9 12 16 25 34 44 55
16 14 16 15 13 13 10 10 11 10 12 10 7 6 5 4 4 4 4 4 4 4 4 4 4 4 4 5 5 6 6 7 8 9 10 11 11 8 9 8 8 8 9 15
8 7 7 5 5 5 5 4 4 6 6 6 5 6 6 6 6 7 7 7 7 8 7 8 8 9 9 9 9 9 10 11 12 13 15 16 16 15 17 19 20 17 14 12
5 4 5 5 5 5 6 8 8 8 7 7 7 6 6 7 8 8 8 9 9 9 9 9 8 9 13 19 20 20 18 17 17 17 18 19 19 20 22 23 29 31 26 24
8 10 9 9 11 10 12 11 13 16 16 18 18 19 18 17 16 17 18 19 20 18 16 14 12 12 16 24 26 24 22 22 21 21 21 20 20 21 22 27 27 25 32 37
17 18 19 20 18 19 21 22 23 24 24 25 25 26 27 28 29 28 26 24 22 20 19 22 28 32 32 29 27 25 24 25 25 25 25 25 25 26 27 28 34 36 38 38
25 27 28 30 31 32 32 33 33 33 33 34 33 32 33 34 33 31 29 26 27 30 35 40 38 30 28 29 31 31 31 31 30 30 30 32 33 35 40 46 49 50 47 45
35 36 36 37 36 38 37 38 38 38 39 38 36 38 39 40 40 40 37 39 41 48 44 35 33 34 35 36 36 35 36 35 34 33 33 32 33 38 41 46 52 54 54 54